Time,TemperatureF,DewpointF,PressureIn,WindDirection,WindDirectionDegrees,WindSpeedMPH,WindSpeedGustMPH,Humidity,HourlyPrecipIn,Conditions,Clouds,dailyrainin,SoftwareType,DateUTC
2013-05-19 00:00:00,41.2,19.9,0.00,WSW,243,0.0,0.0,42,0.00,,---,0.00,VWS V14.00,2013-05-19 06:00:00,
2013-05-19 00:03:00,41.0,19.7,0.00,WSW,243,0.0,0.0,42,0.00,,---,0.00,VWS V14.00,2013-05-19 06:03:00,
2013-05-19 00:04:00,41.0,19.7,0.00,WSW,243,0.0,0.0,42,0.00,,---,0.00,VWS V14.00,2013-05-19 06:04:00,
2013-05-19 00:05:00,41.0,19.7,0.00,WSW,243,0.0,0.0,42,0.00,,---,0.00,VWS V14.00,2013-05-19 06:05:00,
2013-05-19 00:08:00,41.0,19.7,0.00,WSW,243,0.0,0.0,42,0.00,,---,0.00,VWS V14.00,2013-05-19 06:08:00,
2013-05-19 00:09:00,41.0,19.7,0.00,WSW,243,0.0,0.0,42,0.00,,---,0.00,VWS V14.00,2013-05-19 06:09:00,
2013-05-19 00:10:00,41.0,19.7,0.00,WSW,244,0.0,0.0,42,0.00,,---,0.00,VWS V14.00,2013-05-19 06:10:00,
2013-05-19 00:13:00,41.0,19.7,0.00,WSW,243,0.0,0.0,42,0.00,,---,0.00,VWS V14.00,2013-05-19 06:13:00,
2013-05-19 00:14:00,41.0,19.7,0.00,WSW,243,0.0,0.0,42,0.00,,---,0.00,VWS V14.00,2013-05-19 06:14:00,
2013-05-19 00:15:00,41.0,19.7,0.00,WSW,244,0.0,0.0,42,0.00,,---,0.00,VWS V14.00,2013-05-19 06:15:00,
2013-05-19 00:19:00,41.0,19.7,0.00,WSW,243,0.0,0.0,42,0.00,,---,0.00,VWS V14.00,2013-05-19 06:19:00,
2013-05-19 00:20:00,41.0,19.7,0.00,WSW,243,0.0,0.0,42,0.00,,---,0.00,VWS V14.00,2013-05-19 06:20:00,
2013-05-19 00:24:00,40.8,20.1,0.00,WSW,243,0.0,0.0,43,0.00,,---,0.00,VWS V14.00,2013-05-19 06:24:00,
2013-05-19 00:25:00,40.8,20.1,0.00,WSW,241,0.0,0.0,43,0.00,,---,0.00,VWS V14.00,2013-05-19 06:25:00,
2013-05-19 00:26:00,40.8,20.1,0.00,WSW,243,0.0,0.0,43,0.00,,---,0.00,VWS V14.00,2013-05-19 06:26:00,
2013-05-19 00:29:00,40.6,19.9,0.00,WSW,243,0.0,0.0,43,0.00,,---,0.00,VWS V14.00,2013-05-19 06:29:00,
2013-05-19 00:30:00,40.6,19.9,0.00,WSW,243,0.0,0.0,43,0.00,,---,0.00,VWS V14.00,2013-05-19 06:30:00,
2013-05-19 00:31:00,40.6,19.9,0.00,WSW,243,0.0,0.0,43,0.00,,---,0.00,VWS V14.00,2013-05-19 06:31:00,
2013-05-19 00:34:00,40.6,20.5,0.00,WSW,243,0.0,0.0,44,0.00,,---,0.00,VWS V14.00,2013-05-19 06:34:00,
2013-05-19 00:35:00,40.6,20.5,0.00,WSW,243,0.0,0.0,44,0.00,,---,0.00,VWS V14.00,2013-05-19 06:35:00,
2013-05-19 00:36:00,40.6,20.5,0.00,WSW,244,0.0,0.0,44,0.00,,---,0.00,VWS V14.00,2013-05-19 06:36:00,
2013-05-19 00:39:00,40.6,20.5,0.00,WSW,243,0.0,0.0,44,0.00,,---,0.00,VWS V14.00,2013-05-19 06:39:00,
2013-05-19 00:40:00,40.6,20.5,0.00,WSW,243,0.0,0.0,44,0.00,,---,0.00,VWS V14.00,2013-05-19 06:40:00,
2013-05-19 00:41:00,40.6,20.5,0.00,WSW,243,0.0,0.0,44,0.00,,---,0.00,VWS V14.00,2013-05-19 06:41:00,
2013-05-19 00:44:00,40.6,20.5,0.00,WSW,244,0.0,0.0,44,0.00,,---,0.00,VWS V14.00,2013-05-19 06:44:00,
2013-05-19 00:45:00,40.6,20.5,0.00,WSW,243,0.0,0.0,44,0.00,,---,0.00,VWS V14.00,2013-05-19 06:45:00,
2013-05-19 00:46:00,40.5,20.3,0.00,WSW,244,0.0,0.0,44,0.00,,---,0.00,VWS V14.00,2013-05-19 06:46:00,
2013-05-19 00:49:00,40.5,20.3,0.00,WSW,243,0.0,0.0,44,0.00,,---,0.00,VWS V14.00,2013-05-19 06:49:00,
2013-05-19 00:50:00,40.5,20.3,0.00,WSW,243,0.0,0.0,44,0.00,,---,0.00,VWS V14.00,2013-05-19 06:50:00,
2013-05-19 00:51:00,40.5,20.3,0.00,WSW,244,0.0,0.0,44,0.00,,---,0.00,VWS V14.00,2013-05-19 06:51:00,
2013-05-19 00:55:00,40.5,20.3,0.00,WSW,243,0.0,0.0,44,0.00,,---,0.00,VWS V14.00,2013-05-19 06:55:00,
2013-05-19 00:56:00,40.5,20.3,0.00,WSW,244,0.0,0.0,44,0.00,,---,0.00,VWS V14.00,2013-05-19 06:56:00,
2013-05-19 01:00:00,40.3,20.1,0.00,WSW,243,0.0,0.0,44,0.00,,---,0.00,VWS V14.00,2013-05-19 07:00:00,
2013-05-19 01:01:00,40.3,20.1,0.00,WSW,243,0.0,0.0,44,0.00,,---,0.00,VWS V14.00,2013-05-19 07:01:00,
2013-05-19 01:02:00,40.3,20.1,0.00,WSW,243,0.0,0.0,44,0.00,,---,0.00,VWS V14.00,2013-05-19 07:02:00,
2013-05-19 01:05:00,40.3,20.1,0.00,WSW,243,0.0,0.0,44,0.00,,---,0.00,VWS V14.00,2013-05-19 07:05:00,
2013-05-19 01:06:00,40.3,20.1,0.00,WSW,243,0.0,0.0,44,0.00,,---,0.00,VWS V14.00,2013-05-19 07:06:00,
2013-05-19 01:07:00,40.1,20.0,0.00,WSW,243,0.0,0.0,44,0.00,,---,0.00,VWS V14.00,2013-05-19 07:07:00,
2013-05-19 01:10:00,40.1,20.0,0.00,WSW,243,0.0,0.0,44,0.00,,---,0.00,VWS V14.00,2013-05-19 07:10:00,
2013-05-19 01:11:00,40.1,20.0,0.00,WSW,243,0.0,0.0,44,0.00,,---,0.00,VWS V14.00,2013-05-19 07:11:00,
2013-05-19 01:12:00,40.1,20.0,0.00,WSW,243,0.0,0.0,44,0.00,,---,0.00,VWS V14.00,2013-05-19 07:12:00,
2013-05-19 01:15:00,39.9,19.8,0.00,WSW,241,0.0,0.0,44,0.00,,---,0.00,VWS V14.00,2013-05-19 07:15:00,
2013-05-19 01:16:00,39.9,19.8,0.00,WSW,243,0.0,0.0,44,0.00,,---,0.00,VWS V14.00,2013-05-19 07:16:00,
2013-05-19 01:17:00,39.9,19.8,0.00,WSW,242,0.0,0.0,44,0.00,,---,0.00,VWS V14.00,2013-05-19 07:17:00,
2013-05-19 01:20:00,39.7,20.1,0.00,WSW,243,0.0,0.0,45,0.00,,---,0.00,VWS V14.00,2013-05-19 07:20:00,
2013-05-19 01:21:00,39.7,19.6,0.00,WSW,243,0.0,0.0,44,0.00,,---,0.00,VWS V14.00,2013-05-19 07:21:00,
2013-05-19 01:22:00,39.7,20.1,0.00,WSW,244,0.0,0.0,45,0.00,,---,0.00,VWS V14.00,2013-05-19 07:22:00,
2013-05-19 01:25:00,39.7,20.1,0.00,WSW,243,0.0,0.0,45,0.00,,---,0.00,VWS V14.00,2013-05-19 07:25:00,
2013-05-19 01:26:00,39.6,20.0,0.00,WSW,243,0.0,0.0,45,0.00,,---,0.00,VWS V14.00,2013-05-19 07:26:00,
2013-05-19 01:27:00,39.6,20.0,0.00,WSW,243,0.0,0.0,45,0.00,,---,0.00,VWS V14.00,2013-05-19 07:27:00,
2013-05-19 01:30:00,39.4,19.8,0.00,WSW,243,0.0,0.0,45,0.00,,---,0.00,VWS V14.00,2013-05-19 07:30:00,
2013-05-19 01:31:00,39.4,19.8,0.00,WSW,243,0.0,0.0,45,0.00,,---,0.00,VWS V14.00,2013-05-19 07:31:00,
2013-05-19 01:32:00,39.4,19.8,0.00,WSW,243,0.0,0.0,45,0.00,,---,0.00,VWS V14.00,2013-05-19 07:32:00,
2013-05-19 01:35:00,39.4,19.8,0.00,WSW,243,0.0,0.0,45,0.00,,---,0.00,VWS V14.00,2013-05-19 07:35:00,
2013-05-19 01:36:00,39.4,19.8,0.00,WSW,244,0.0,0.0,45,0.00,,---,0.00,VWS V14.00,2013-05-19 07:36:00,
2013-05-19 01:37:00,39.2,19.7,0.00,WSW,244,0.0,0.0,45,0.00,,---,0.00,VWS V14.00,2013-05-19 07:37:00,
2013-05-19 01:40:00,39.2,19.7,0.00,WSW,243,0.0,0.0,45,0.00,,---,0.00,VWS V14.00,2013-05-19 07:40:00,
2013-05-19 01:41:00,39.2,19.7,0.00,WSW,244,0.0,0.0,45,0.00,,---,0.00,VWS V14.00,2013-05-19 07:41:00,
2013-05-19 01:42:00,39.2,19.7,0.00,WSW,244,0.0,0.0,45,0.00,,---,0.00,VWS V14.00,2013-05-19 07:42:00,
2013-05-19 01:46:00,38.8,19.8,0.00,WSW,257,0.0,0.0,46,0.00,,---,0.00,VWS V14.00,2013-05-19 07:46:00,
2013-05-19 01:47:00,38.8,19.8,0.00,WSW,256,0.0,0.0,46,0.00,,---,0.00,VWS V14.00,2013-05-19 07:47:00,
2013-05-19 01:48:00,38.8,20.4,0.00,WSW,257,0.0,0.0,47,0.00,,---,0.00,VWS V14.00,2013-05-19 07:48:00,
2013-05-19 01:51:00,38.7,19.7,0.00,WSW,256,0.0,0.0,46,0.00,,---,0.00,VWS V14.00,2013-05-19 07:51:00,
2013-05-19 01:52:00,38.7,19.7,0.00,WSW,256,0.0,0.0,46,0.00,,---,0.00,VWS V14.00,2013-05-19 07:52:00,
2013-05-19 01:53:00,38.7,19.7,0.00,WSW,257,0.0,0.0,46,0.00,,---,0.00,VWS V14.00,2013-05-19 07:53:00,
2013-05-19 01:56:00,38.7,19.7,0.00,WSW,256,0.0,0.0,46,0.00,,---,0.00,VWS V14.00,2013-05-19 07:56:00,
2013-05-19 01:58:00,38.7,19.7,0.00,WSW,256,0.0,0.0,46,0.00,,---,0.00,VWS V14.00,2013-05-19 07:58:00,
2013-05-19 02:01:00,38.5,19.5,0.00,WSW,256,0.0,0.0,46,0.00,,---,0.00,VWS V14.00,2013-05-19 08:01:00,
2013-05-19 02:03:00,38.5,19.5,0.00,WSW,256,0.0,0.0,46,0.00,,---,0.00,VWS V14.00,2013-05-19 08:03:00,
2013-05-19 02:06:00,38.3,19.4,0.00,WSW,256,0.0,0.0,46,0.00,,---,0.00,VWS V14.00,2013-05-19 08:06:00,
2013-05-19 02:07:00,38.3,19.4,0.00,WSW,256,0.0,0.0,46,0.00,,---,0.00,VWS V14.00,2013-05-19 08:07:00,
2013-05-19 02:08:00,38.3,19.4,0.00,WSW,256,0.0,0.0,46,0.00,,---,0.00,VWS V14.00,2013-05-19 08:08:00,
2013-05-19 02:11:00,38.3,19.9,0.00,WSW,256,0.0,0.0,47,0.00,,---,0.00,VWS V14.00,2013-05-19 08:11:00,
2013-05-19 02:12:00,38.3,19.9,0.00,WSW,256,0.0,0.0,47,0.00,,---,0.00,VWS V14.00,2013-05-19 08:12:00,
2013-05-19 02:13:00,38.1,19.7,0.00,WSW,256,0.0,0.0,47,0.00,,---,0.00,VWS V14.00,2013-05-19 08:13:00,
2013-05-19 02:17:00,38.1,19.7,0.00,WSW,252,0.0,0.0,47,0.00,,---,0.00,VWS V14.00,2013-05-19 08:17:00,
2013-05-19 02:18:00,37.9,19.5,0.00,WSW,256,0.0,0.0,47,0.00,,---,0.00,VWS V14.00,2013-05-19 08:18:00,
2013-05-19 02:19:00,37.9,19.5,0.00,WSW,257,0.0,0.0,47,0.00,,---,0.00,VWS V14.00,2013-05-19 08:19:00,
2013-05-19 02:22:00,37.9,19.5,0.00,SSW,198,0.0,0.0,47,0.00,,---,0.00,VWS V14.00,2013-05-19 08:22:00,
2013-05-19 02:23:00,37.9,19.5,0.00,ESE,118,0.0,2.7,47,0.00,,---,0.00,VWS V14.00,2013-05-19 08:23:00,
2013-05-19 02:24:00,37.9,19.5,0.00,ESE,113,0.0,2.7,47,0.00,,---,0.00,VWS V14.00,2013-05-19 08:24:00,
2013-05-19 02:27:00,37.8,19.9,0.00,SE,145,0.0,0.0,48,0.00,,---,0.00,VWS V14.00,2013-05-19 08:27:00,
2013-05-19 02:28:00,37.8,19.9,0.00,SSE,150,0.0,0.0,48,0.00,,---,0.00,VWS V14.00,2013-05-19 08:28:00,
2013-05-19 02:29:00,37.6,19.7,0.00,SSE,150,0.0,0.0,48,0.00,,---,0.00,VWS V14.00,2013-05-19 08:29:00,
2013-05-19 02:32:00,37.6,19.7,0.00,SSE,150,0.0,0.0,48,0.00,,---,0.00,VWS V14.00,2013-05-19 08:32:00,
2013-05-19 02:33:00,37.6,19.7,0.00,SSE,150,0.0,0.0,48,0.00,,---,0.00,VWS V14.00,2013-05-19 08:33:00,
2013-05-19 02:34:00,37.6,19.7,0.00,SE,146,0.0,0.0,48,0.00,,---,0.00,VWS V14.00,2013-05-19 08:34:00,
2013-05-19 02:37:00,37.4,19.5,0.00,East,94,2.7,2.7,48,0.00,,---,0.00,VWS V14.00,2013-05-19 08:37:00,
2013-05-19 02:38:00,37.4,19.5,0.00,East,95,0.0,2.2,48,0.00,,---,0.00,VWS V14.00,2013-05-19 08:38:00,
2013-05-19 02:39:00,37.4,19.5,0.00,South,183,0.0,2.2,48,0.00,,---,0.00,VWS V14.00,2013-05-19 08:39:00,
2013-05-19 02:42:00,37.4,19.5,0.00,East,99,0.0,0.0,48,0.00,,---,0.00,VWS V14.00,2013-05-19 08:42:00,
2013-05-19 02:43:00,37.4,19.5,0.00,East,99,0.0,0.0,48,0.00,,---,0.00,VWS V14.00,2013-05-19 08:43:00,
2013-05-19 02:44:00,37.4,19.5,0.00,East,98,0.0,0.0,48,0.00,,---,0.00,VWS V14.00,2013-05-19 08:44:00,
2013-05-19 02:48:00,37.2,19.8,0.00,East,99,0.0,0.0,49,0.00,,---,0.00,VWS V14.00,2013-05-19 08:48:00,
2013-05-19 02:49:00,37.2,19.8,0.00,East,99,0.0,0.0,49,0.00,,---,0.00,VWS V14.00,2013-05-19 08:49:00,
2013-05-19 02:53:00,37.2,19.8,0.00,East,99,0.0,0.0,49,0.00,,---,0.00,VWS V14.00,2013-05-19 08:53:00,
2013-05-19 02:54:00,37.2,19.8,0.00,East,99,0.0,0.0,49,0.00,,---,0.00,VWS V14.00,2013-05-19 08:54:00,
2013-05-19 02:55:00,37.0,19.2,0.00,East,99,0.0,0.0,48,0.00,,---,0.00,VWS V14.00,2013-05-19 08:55:00,
2013-05-19 02:58:00,37.0,19.7,0.00,East,99,0.0,0.0,49,0.00,,---,0.00,VWS V14.00,2013-05-19 08:58:00,
2013-05-19 02:59:00,37.0,19.7,0.00,East,99,0.0,0.0,49,0.00,,---,0.00,VWS V14.00,2013-05-19 08:59:00,
2013-05-19 03:00:00,37.0,19.7,0.00,East,99,0.0,0.0,49,0.00,,---,0.00,VWS V14.00,2013-05-19 09:00:00,
2013-05-19 03:03:00,37.0,19.7,0.00,East,99,0.0,0.0,49,0.00,,---,0.00,VWS V14.00,2013-05-19 09:03:00,
2013-05-19 03:04:00,37.0,19.7,0.00,East,99,0.0,0.0,49,0.00,,---,0.00,VWS V14.00,2013-05-19 09:04:00,
2013-05-19 03:05:00,37.0,19.7,0.00,East,99,0.0,0.0,49,0.00,,---,0.00,VWS V14.00,2013-05-19 09:05:00,
2013-05-19 03:08:00,36.9,19.5,0.00,East,99,0.0,0.0,49,0.00,,---,0.00,VWS V14.00,2013-05-19 09:08:00,
2013-05-19 03:09:00,36.9,19.5,0.00,East,99,0.0,0.0,49,0.00,,---,0.00,VWS V14.00,2013-05-19 09:09:00,
2013-05-19 03:10:00,36.9,19.5,0.00,East,99,0.0,0.0,49,0.00,,---,0.00,VWS V14.00,2013-05-19 09:10:00,
2013-05-19 03:13:00,36.9,19.5,0.00,East,99,0.0,0.0,49,0.00,,---,0.00,VWS V14.00,2013-05-19 09:13:00,
2013-05-19 03:14:00,36.9,19.5,0.00,East,99,0.0,0.0,49,0.00,,---,0.00,VWS V14.00,2013-05-19 09:14:00,
2013-05-19 03:16:00,36.9,19.5,0.00,East,99,0.0,0.0,49,0.00,,---,0.00,VWS V14.00,2013-05-19 09:16:00,
2013-05-19 03:18:00,36.9,19.5,0.00,East,99,0.0,0.0,49,0.00,,---,0.00,VWS V14.00,2013-05-19 09:18:00,
2013-05-19 03:19:00,36.9,19.5,0.00,East,99,0.0,0.0,49,0.00,,---,0.00,VWS V14.00,2013-05-19 09:19:00,
2013-05-19 03:20:00,36.9,19.5,0.00,East,99,0.0,0.0,49,0.00,,---,0.00,VWS V14.00,2013-05-19 09:20:00,
2013-05-19 03:21:00,36.7,19.3,0.00,East,99,0.0,0.0,49,0.00,,---,0.00,VWS V14.00,2013-05-19 09:21:00,
2013-05-19 03:23:00,36.7,19.3,0.00,East,99,0.0,0.0,49,0.00,,---,0.00,VWS V14.00,2013-05-19 09:23:00,
2013-05-19 03:24:00,36.7,19.8,0.00,East,97,0.0,0.0,50,0.00,,---,0.00,VWS V14.00,2013-05-19 09:24:00,
2013-05-19 03:25:00,36.7,19.8,0.00,East,99,0.0,0.0,50,0.00,,---,0.00,VWS V14.00,2013-05-19 09:25:00,
2013-05-19 03:26:00,36.7,19.8,0.00,East,99,0.0,0.0,50,0.00,,---,0.00,VWS V14.00,2013-05-19 09:26:00,
2013-05-19 03:28:00,36.5,19.6,0.00,East,99,0.0,0.0,50,0.00,,---,0.00,VWS V14.00,2013-05-19 09:28:00,
2013-05-19 03:29:00,36.5,19.6,0.00,East,99,0.0,0.0,50,0.00,,---,0.00,VWS V14.00,2013-05-19 09:29:00,
2013-05-19 03:30:00,36.5,19.6,0.00,East,99,0.0,0.0,50,0.00,,---,0.00,VWS V14.00,2013-05-19 09:30:00,
2013-05-19 03:31:00,36.5,19.6,0.00,East,99,0.0,0.0,50,0.00,,---,0.00,VWS V14.00,2013-05-19 09:31:00,
2013-05-19 03:34:00,36.3,19.5,0.00,East,98,0.0,0.0,50,0.00,,---,0.00,VWS V14.00,2013-05-19 09:34:00,
2013-05-19 03:35:00,36.3,19.5,0.00,East,98,0.0,0.0,50,0.00,,---,0.00,VWS V14.00,2013-05-19 09:35:00,
2013-05-19 03:36:00,36.3,19.5,0.00,East,96,0.0,0.0,50,0.00,,---,0.00,VWS V14.00,2013-05-19 09:36:00,
2013-05-19 03:39:00,36.3,19.5,0.00,ESE,122,0.0,0.0,50,0.00,,---,0.00,VWS V14.00,2013-05-19 09:39:00,
2013-05-19 03:40:00,36.3,19.5,0.00,ESE,123,0.0,0.0,50,0.00,,---,0.00,VWS V14.00,2013-05-19 09:40:00,
2013-05-19 03:41:00,36.3,19.5,0.00,ESE,123,0.0,0.0,50,0.00,,---,0.00,VWS V14.00,2013-05-19 09:41:00,
2013-05-19 03:44:00,36.3,19.5,0.00,ESE,123,0.0,0.0,50,0.00,,---,0.00,VWS V14.00,2013-05-19 09:44:00,
2013-05-19 03:45:00,36.3,19.5,0.00,ESE,120,0.0,0.0,50,0.00,,---,0.00,VWS V14.00,2013-05-19 09:45:00,
2013-05-19 03:46:00,36.1,19.3,0.00,ESE,109,0.0,0.0,50,0.00,,---,0.00,VWS V14.00,2013-05-19 09:46:00,
2013-05-19 03:49:00,36.1,19.3,0.00,East,96,0.0,0.0,50,0.00,,---,0.00,VWS V14.00,2013-05-19 09:49:00,
2013-05-19 03:50:00,36.1,19.3,0.00,East,98,0.0,0.0,50,0.00,,---,0.00,VWS V14.00,2013-05-19 09:50:00,
2013-05-19 03:51:00,36.1,19.3,0.00,East,97,0.0,0.0,50,0.00,,---,0.00,VWS V14.00,2013-05-19 09:51:00,
2013-05-19 03:52:00,36.1,19.3,0.00,East,98,0.0,0.0,50,0.00,,---,0.00,VWS V14.00,2013-05-19 09:52:00,
2013-05-19 03:54:00,36.0,19.1,0.00,East,86,0.0,0.0,50,0.00,,---,0.00,VWS V14.00,2013-05-19 09:54:00,
2013-05-19 03:55:00,36.0,19.1,0.00,East,86,0.0,0.0,50,0.00,,---,0.00,VWS V14.00,2013-05-19 09:55:00,
2013-05-19 03:56:00,36.0,19.1,0.00,East,86,0.0,0.0,50,0.00,,---,0.00,VWS V14.00,2013-05-19 09:56:00,
2013-05-19 03:57:00,36.0,19.1,0.00,East,86,0.0,0.0,50,0.00,,---,0.00,VWS V14.00,2013-05-19 09:57:00,
2013-05-19 04:00:00,36.0,19.1,0.00,East,86,0.0,0.0,50,0.00,,---,0.00,VWS V14.00,2013-05-19 10:00:00,
2013-05-19 04:01:00,36.0,19.1,0.00,South,180,0.0,0.0,50,0.00,,---,0.00,VWS V14.00,2013-05-19 10:01:00,
2013-05-19 04:02:00,35.8,19.0,0.00,South,184,0.0,0.0,50,0.00,,---,0.00,VWS V14.00,2013-05-19 10:02:00,
2013-05-19 04:05:00,35.8,19.0,0.00,South,185,0.0,0.0,50,0.00,,---,0.00,VWS V14.00,2013-05-19 10:05:00,
2013-05-19 04:06:00,35.8,19.0,0.00,South,185,0.0,0.0,50,0.00,,---,0.00,VWS V14.00,2013-05-19 10:06:00,
2013-05-19 04:07:00,35.8,19.0,0.00,South,180,0.0,0.0,50,0.00,,---,0.00,VWS V14.00,2013-05-19 10:07:00,
2013-05-19 04:10:00,35.8,19.0,0.00,South,178,0.0,0.0,50,0.00,,---,0.00,VWS V14.00,2013-05-19 10:10:00,
2013-05-19 04:11:00,35.8,19.0,0.00,South,179,0.0,0.0,50,0.00,,---,0.00,VWS V14.00,2013-05-19 10:11:00,
2013-05-19 04:12:00,35.8,19.0,0.00,South,180,0.0,0.0,50,0.00,,---,0.00,VWS V14.00,2013-05-19 10:12:00,
2013-05-19 04:15:00,35.6,18.8,0.00,South,180,0.0,0.0,50,0.00,,---,0.00,VWS V14.00,2013-05-19 10:15:00,
2013-05-19 04:16:00,35.6,18.8,0.00,South,187,0.0,0.0,50,0.00,,---,0.00,VWS V14.00,2013-05-19 10:16:00,
2013-05-19 04:17:00,35.6,18.8,0.00,South,187,0.0,0.0,50,0.00,,---,0.00,VWS V14.00,2013-05-19 10:17:00,
2013-05-19 04:20:00,35.4,18.6,0.00,WNW,288,0.0,0.0,50,0.00,,---,0.00,VWS V14.00,2013-05-19 10:20:00,
2013-05-19 04:21:00,35.4,18.6,0.00,WNW,288,0.0,0.0,50,0.00,,---,0.00,VWS V14.00,2013-05-19 10:21:00,
2013-05-19 04:22:00,35.4,18.6,0.00,WNW,284,0.0,0.0,50,0.00,,---,0.00,VWS V14.00,2013-05-19 10:22:00,
2013-05-19 04:25:00,35.4,18.6,0.00,WNW,286,0.0,0.0,50,0.00,,---,0.00,VWS V14.00,2013-05-19 10:25:00,
2013-05-19 04:26:00,35.4,18.6,0.00,WNW,295,0.0,0.0,50,0.00,,---,0.00,VWS V14.00,2013-05-19 10:26:00,
2013-05-19 04:28:00,35.4,18.6,0.00,SW,236,0.0,0.0,50,0.00,,---,0.00,VWS V14.00,2013-05-19 10:28:00,
2013-05-19 04:30:00,35.2,18.5,0.00,WSW,251,0.0,0.0,50,0.00,,---,0.00,VWS V14.00,2013-05-19 10:30:00,
2013-05-19 04:31:00,35.2,18.5,0.00,WSW,251,0.0,0.0,50,0.00,,---,0.00,VWS V14.00,2013-05-19 10:31:00,
2013-05-19 04:33:00,35.2,18.5,0.00,WSW,251,0.0,0.0,50,0.00,,---,0.00,VWS V14.00,2013-05-19 10:33:00,
2013-05-19 04:35:00,35.2,18.5,0.00,WSW,252,0.0,0.0,50,0.00,,---,0.00,VWS V14.00,2013-05-19 10:35:00,
2013-05-19 04:36:00,35.2,18.5,0.00,SW,234,0.0,0.0,50,0.00,,---,0.00,VWS V14.00,2013-05-19 10:36:00,
2013-05-19 04:38:00,35.1,18.8,0.00,WSW,247,0.0,0.0,51,0.00,,---,0.00,VWS V14.00,2013-05-19 10:38:00,
2013-05-19 04:41:00,35.1,18.8,0.00,WSW,241,0.0,0.0,51,0.00,,---,0.00,VWS V14.00,2013-05-19 10:41:00,
2013-05-19 04:42:00,35.1,18.8,0.00,WSW,247,0.0,0.0,51,0.00,,---,0.00,VWS V14.00,2013-05-19 10:42:00,
2013-05-19 04:43:00,35.1,18.8,0.00,WSW,247,0.0,0.0,51,0.00,,---,0.00,VWS V14.00,2013-05-19 10:43:00,
2013-05-19 04:46:00,35.1,19.2,0.00,SW,229,0.0,0.0,52,0.00,,---,0.00,VWS V14.00,2013-05-19 10:46:00,
2013-05-19 04:47:00,34.9,19.1,0.00,SW,229,0.0,0.0,52,0.00,,---,0.00,VWS V14.00,2013-05-19 10:47:00,
2013-05-19 04:48:00,34.9,19.1,0.00,SW,224,0.0,0.0,52,0.00,,---,0.00,VWS V14.00,2013-05-19 10:48:00,
2013-05-19 04:51:00,34.9,19.1,0.00,SW,228,0.0,0.0,52,0.00,,---,0.00,VWS V14.00,2013-05-19 10:51:00,
2013-05-19 04:52:00,34.9,19.1,0.00,WSW,250,0.0,0.0,52,0.00,,---,0.00,VWS V14.00,2013-05-19 10:52:00,
2013-05-19 04:53:00,34.9,19.1,0.00,WSW,244,0.0,0.0,52,0.00,,---,0.00,VWS V14.00,2013-05-19 10:53:00,
2013-05-19 04:56:00,34.9,19.1,0.00,WSW,250,0.0,0.0,52,0.00,,---,0.00,VWS V14.00,2013-05-19 10:56:00,
2013-05-19 04:57:00,34.9,19.1,0.00,WSW,250,0.0,0.0,52,0.00,,---,0.00,VWS V14.00,2013-05-19 10:57:00,
2013-05-19 04:58:00,35.1,19.2,0.00,WSW,248,0.0,0.0,52,0.00,,---,0.00,VWS V14.00,2013-05-19 10:58:00,
2013-05-19 05:01:00,35.1,19.2,0.00,WSW,244,0.0,0.0,52,0.00,,---,0.00,VWS V14.00,2013-05-19 11:01:00,
2013-05-19 05:02:00,35.1,19.2,0.00,SW,236,0.0,0.0,52,0.00,,---,0.00,VWS V14.00,2013-05-19 11:02:00,
2013-05-19 05:03:00,35.1,19.2,0.00,SW,227,0.0,0.0,52,0.00,,---,0.00,VWS V14.00,2013-05-19 11:03:00,
2013-05-19 05:06:00,35.1,19.2,0.00,SW,227,0.0,0.0,52,0.00,,---,0.00,VWS V14.00,2013-05-19 11:06:00,
2013-05-19 05:07:00,35.2,18.9,0.00,SSW,208,0.0,0.0,51,0.00,,---,0.00,VWS V14.00,2013-05-19 11:07:00,
2013-05-19 05:08:00,35.2,18.9,0.00,SSW,213,0.0,0.0,51,0.00,,---,0.00,VWS V14.00,2013-05-19 11:08:00,
2013-05-19 05:11:00,35.2,18.9,0.00,SW,214,0.0,0.0,51,0.00,,---,0.00,VWS V14.00,2013-05-19 11:11:00,
2013-05-19 05:12:00,35.2,18.9,0.00,SSW,213,0.0,0.0,51,0.00,,---,0.00,VWS V14.00,2013-05-19 11:12:00,
2013-05-19 05:13:00,35.2,18.9,0.00,SSW,211,0.0,0.0,51,0.00,,---,0.00,VWS V14.00,2013-05-19 11:13:00,
2013-05-19 05:16:00,35.2,18.9,0.00,SSW,211,0.0,0.0,51,0.00,,---,0.00,VWS V14.00,2013-05-19 11:16:00,
2013-05-19 05:17:00,35.2,18.9,0.00,SSE,160,2.7,2.7,51,0.00,,---,0.00,VWS V14.00,2013-05-19 11:17:00,
2013-05-19 05:18:00,35.2,18.9,0.00,South,169,0.0,0.0,51,0.00,,---,0.00,VWS V14.00,2013-05-19 11:18:00,
2013-05-19 05:21:00,35.2,18.5,0.00,SSE,164,0.0,3.1,50,0.00,,---,0.00,VWS V14.00,2013-05-19 11:21:00,
2013-05-19 05:22:00,35.2,18.5,0.00,SSE,166,0.0,0.0,50,0.00,,---,0.00,VWS V14.00,2013-05-19 11:22:00,
2013-05-19 05:23:00,35.2,18.5,0.00,SSE,167,0.0,0.0,50,0.00,,---,0.00,VWS V14.00,2013-05-19 11:23:00,
2013-05-19 05:26:00,35.2,18.0,0.00,ESE,103,3.1,3.6,49,0.00,,---,0.00,VWS V14.00,2013-05-19 11:26:00,
2013-05-19 05:27:00,35.4,18.2,0.00,ESE,104,3.6,3.6,49,0.00,,---,0.00,VWS V14.00,2013-05-19 11:27:00,
2013-05-19 05:29:00,35.4,18.2,0.00,ESE,111,0.0,2.2,49,0.00,,---,0.00,VWS V14.00,2013-05-19 11:29:00,
2013-05-19 05:32:00,35.4,17.7,0.00,South,184,0.0,0.0,48,0.00,,---,0.00,VWS V14.00,2013-05-19 11:32:00,
2013-05-19 05:34:00,35.4,18.2,0.00,SSW,202,0.0,0.0,49,0.00,,---,0.00,VWS V14.00,2013-05-19 11:34:00,
2013-05-19 05:37:00,35.2,18.9,0.00,SSW,211,0.0,0.0,51,0.00,,---,0.00,VWS V14.00,2013-05-19 11:37:00,
2013-05-19 05:38:00,35.2,18.9,0.00,SW,218,0.0,0.0,51,0.00,,---,0.00,VWS V14.00,2013-05-19 11:38:00,
2013-05-19 05:39:00,35.2,18.9,0.00,SW,220,0.0,0.0,51,0.00,,---,0.00,VWS V14.00,2013-05-19 11:39:00,
2013-05-19 05:42:00,35.1,18.8,0.00,West,279,0.0,0.0,51,0.00,,---,0.00,VWS V14.00,2013-05-19 11:42:00,
2013-05-19 05:43:00,35.1,19.2,0.00,West,273,0.0,0.0,52,0.00,,---,0.00,VWS V14.00,2013-05-19 11:43:00,
2013-05-19 05:44:00,35.1,19.2,0.00,SSW,213,0.0,0.0,52,0.00,,---,0.00,VWS V14.00,2013-05-19 11:44:00,
2013-05-19 05:47:00,34.9,19.5,0.00,SW,228,0.0,0.0,53,0.00,,---,0.00,VWS V14.00,2013-05-19 11:47:00,
2013-05-19 05:48:00,34.9,19.5,0.00,SW,222,0.0,0.0,53,0.00,,---,0.00,VWS V14.00,2013-05-19 11:48:00,
2013-05-19 05:49:00,34.9,19.5,0.00,SW,232,0.0,0.0,53,0.00,,---,0.00,VWS V14.00,2013-05-19 11:49:00,
2013-05-19 05:52:00,34.7,19.3,0.00,WSW,246,0.0,0.0,53,0.00,,---,0.00,VWS V14.00,2013-05-19 11:52:00,
2013-05-19 05:53:00,34.7,19.3,0.00,WSW,247,0.0,0.0,53,0.00,,---,0.00,VWS V14.00,2013-05-19 11:53:00,
2013-05-19 05:54:00,34.7,19.3,0.00,WSW,241,0.0,0.0,53,0.00,,---,0.00,VWS V14.00,2013-05-19 11:54:00,
2013-05-19 05:57:00,34.7,18.9,0.00,WSW,247,0.0,0.0,52,0.00,,---,0.00,VWS V14.00,2013-05-19 11:57:00,
2013-05-19 05:58:00,34.7,18.9,0.00,WSW,247,0.0,0.0,52,0.00,,---,0.00,VWS V14.00,2013-05-19 11:58:00,
2013-05-19 05:59:00,34.7,18.9,0.00,WSW,247,0.0,0.0,52,0.00,,---,0.00,VWS V14.00,2013-05-19 11:59:00,
2013-05-19 06:03:00,34.7,18.9,0.00,WSW,247,0.0,0.0,52,0.00,,---,0.00,VWS V14.00,2013-05-19 12:03:00,
2013-05-19 06:04:00,34.7,18.9,0.00,WSW,247,0.0,0.0,52,0.00,,---,0.00,VWS V14.00,2013-05-19 12:04:00,
2013-05-19 06:05:00,34.7,18.9,0.00,WSW,247,0.0,0.0,52,0.00,,---,0.00,VWS V14.00,2013-05-19 12:05:00,
2013-05-19 06:08:00,34.7,18.9,0.00,WSW,247,0.0,0.0,52,0.00,,---,0.00,VWS V14.00,2013-05-19 12:08:00,
2013-05-19 06:09:00,34.7,18.9,0.00,WSW,254,0.0,2.7,52,0.00,,---,0.00,VWS V14.00,2013-05-19 12:09:00,
2013-05-19 06:10:00,34.7,18.9,0.00,WSW,254,0.0,0.0,52,0.00,,---,0.00,VWS V14.00,2013-05-19 12:10:00,
2013-05-19 06:13:00,34.7,18.9,0.00,WSW,254,0.0,0.0,52,0.00,,---,0.00,VWS V14.00,2013-05-19 12:13:00,
2013-05-19 06:14:00,34.5,18.7,0.00,WSW,254,0.0,0.0,52,0.00,,---,0.00,VWS V14.00,2013-05-19 12:14:00,
2013-05-19 06:15:00,34.5,18.7,0.00,WNW,286,0.0,0.0,52,0.00,,---,0.00,VWS V14.00,2013-05-19 12:15:00,
2013-05-19 06:18:00,34.5,18.3,0.00,WNW,286,0.0,0.0,51,0.00,,---,0.00,VWS V14.00,2013-05-19 12:18:00,
2013-05-19 06:19:00,34.5,18.3,0.00,WNW,286,0.0,0.0,51,0.00,,---,0.00,VWS V14.00,2013-05-19 12:19:00,
2013-05-19 06:20:00,34.5,18.3,0.00,West,281,0.0,0.0,51,0.00,,---,0.00,VWS V14.00,2013-05-19 12:20:00,
2013-05-19 06:23:00,34.5,17.8,0.00,West,281,0.0,0.0,50,0.00,,---,0.00,VWS V14.00,2013-05-19 12:23:00,
2013-05-19 06:24:00,34.5,17.8,0.00,West,281,0.0,0.0,50,0.00,,---,0.00,VWS V14.00,2013-05-19 12:24:00,
2013-05-19 06:25:00,34.5,18.3,0.00,SW,230,0.0,0.0,51,0.00,,---,0.00,VWS V14.00,2013-05-19 12:25:00,
2013-05-19 06:28:00,34.3,18.5,0.00,WSW,249,0.0,0.0,52,0.00,,---,0.00,VWS V14.00,2013-05-19 12:28:00,
2013-05-19 06:29:00,34.3,18.5,0.00,WSW,249,0.0,0.0,52,0.00,,---,0.00,VWS V14.00,2013-05-19 12:29:00,
2013-05-19 06:30:00,34.3,18.5,0.00,WSW,249,0.0,0.0,52,0.00,,---,0.00,VWS V14.00,2013-05-19 12:30:00,
2013-05-19 06:33:00,34.3,18.5,0.00,WSW,249,0.0,0.0,52,0.00,,---,0.00,VWS V14.00,2013-05-19 12:33:00,
2013-05-19 06:34:00,34.2,18.4,0.00,WSW,249,0.0,0.0,52,0.00,,---,0.00,VWS V14.00,2013-05-19 12:34:00,
2013-05-19 06:35:00,34.2,18.4,0.00,WSW,249,0.0,0.0,52,0.00,,---,0.00,VWS V14.00,2013-05-19 12:35:00,
2013-05-19 06:39:00,34.0,18.7,0.00,WSW,247,0.0,0.0,53,0.00,,---,0.00,VWS V14.00,2013-05-19 12:39:00,
2013-05-19 06:40:00,34.0,18.7,0.00,WSW,247,0.0,0.0,53,0.00,,---,0.00,VWS V14.00,2013-05-19 12:40:00,
2013-05-19 06:44:00,34.0,18.7,0.00,WSW,254,0.0,0.0,53,0.00,,---,0.00,VWS V14.00,2013-05-19 12:44:00,
2013-05-19 06:45:00,34.0,18.7,0.00,WNW,290,0.0,3.6,53,0.00,,---,0.00,VWS V14.00,2013-05-19 12:45:00,
2013-05-19 06:49:00,34.0,18.7,0.00,WNW,290,0.0,0.0,53,0.00,,---,0.00,VWS V14.00,2013-05-19 12:49:00,
2013-05-19 06:50:00,34.0,18.7,0.00,WNW,291,2.2,2.7,53,0.00,,---,0.00,VWS V14.00,2013-05-19 12:50:00,
2013-05-19 06:54:00,34.0,18.7,0.00,SSW,193,0.0,0.0,53,0.00,,---,0.00,VWS V14.00,2013-05-19 12:54:00,
2013-05-19 06:55:00,34.2,18.4,0.00,SW,216,0.0,0.0,52,0.00,,---,0.00,VWS V14.00,2013-05-19 12:55:00,
2013-05-19 06:56:00,34.2,17.9,0.00,SW,216,0.0,0.0,51,0.00,,---,0.00,VWS V14.00,2013-05-19 12:56:00,
2013-05-19 06:59:00,34.3,17.6,0.00,ESE,109,3.6,5.4,50,0.00,,---,0.00,VWS V14.00,2013-05-19 12:59:00,
2013-05-19 07:00:00,34.3,17.6,0.00,SSW,201,2.7,3.6,50,0.00,,---,0.00,VWS V14.00,2013-05-19 13:00:00,
2013-05-19 07:01:00,34.3,17.6,0.00,East,87,0.0,3.6,50,0.00,,---,0.00,VWS V14.00,2013-05-19 13:01:00,
2013-05-19 07:04:00,34.5,17.8,0.00,ESE,108,2.2,2.7,50,0.00,,---,0.00,VWS V14.00,2013-05-19 13:04:00,
2013-05-19 07:05:00,34.5,17.8,0.00,ESE,108,0.0,0.0,50,0.00,,---,0.00,VWS V14.00,2013-05-19 13:05:00,
2013-05-19 07:06:00,34.5,17.8,0.00,SSW,209,0.0,0.0,50,0.00,,---,0.00,VWS V14.00,2013-05-19 13:06:00,
2013-05-19 07:09:00,34.5,17.8,0.00,SW,225,0.0,0.0,50,0.00,,---,0.00,VWS V14.00,2013-05-19 13:09:00,
2013-05-19 07:10:00,34.5,18.3,0.00,SW,225,0.0,0.0,51,0.00,,---,0.00,VWS V14.00,2013-05-19 13:10:00,
2013-05-19 07:11:00,34.5,18.3,0.00,SW,225,0.0,0.0,51,0.00,,---,0.00,VWS V14.00,2013-05-19 13:11:00,
2013-05-19 07:14:00,34.5,18.7,0.00,SW,220,0.0,0.0,52,0.00,,---,0.00,VWS V14.00,2013-05-19 13:14:00,
2013-05-19 07:15:00,34.5,18.7,0.00,SW,218,0.0,2.2,52,0.00,,---,0.00,VWS V14.00,2013-05-19 13:15:00,
2013-05-19 07:16:00,34.5,18.7,0.00,SW,217,0.0,0.0,52,0.00,,---,0.00,VWS V14.00,2013-05-19 13:16:00,
2013-05-19 07:17:00,34.5,19.2,0.00,SW,218,0.0,0.0,53,0.00,,---,0.00,VWS V14.00,2013-05-19 13:17:00,
2013-05-19 07:19:00,34.5,19.2,0.00,SW,218,0.0,0.0,53,0.00,,---,0.00,VWS V14.00,2013-05-19 13:19:00,
2013-05-19 07:20:00,34.5,19.2,0.00,SW,219,0.0,0.0,53,0.00,,---,0.00,VWS V14.00,2013-05-19 13:20:00,
2013-05-19 07:21:00,34.5,19.2,0.00,SW,214,0.0,0.0,53,0.00,,---,0.00,VWS V14.00,2013-05-19 13:21:00,
2013-05-19 07:22:00,34.5,19.2,0.00,SW,218,0.0,0.0,53,0.00,,---,0.00,VWS V14.00,2013-05-19 13:22:00,
2013-05-19 07:24:00,34.5,18.7,0.00,SW,219,0.0,0.0,52,0.00,,---,0.00,VWS V14.00,2013-05-19 13:24:00,
2013-05-19 07:25:00,34.7,18.9,0.00,SW,214,0.0,0.0,52,0.00,,---,0.00,VWS V14.00,2013-05-19 13:25:00,
2013-05-19 07:26:00,34.7,18.9,0.00,SW,217,0.0,0.0,52,0.00,,---,0.00,VWS V14.00,2013-05-19 13:26:00,
2013-05-19 07:27:00,34.7,18.9,0.00,SSW,213,0.0,0.0,52,0.00,,---,0.00,VWS V14.00,2013-05-19 13:27:00,
2013-05-19 07:29:00,34.9,19.1,0.00,SW,219,0.0,0.0,52,0.00,,---,0.00,VWS V14.00,2013-05-19 13:29:00,
2013-05-19 07:30:00,34.9,19.1,0.00,SW,219,0.0,0.0,52,0.00,,---,0.00,VWS V14.00,2013-05-19 13:30:00,
2013-05-19 07:31:00,34.9,19.1,0.00,SW,219,0.0,0.0,52,0.00,,---,0.00,VWS V14.00,2013-05-19 13:31:00,
2013-05-19 07:32:00,34.9,19.1,0.00,SSW,211,0.0,0.0,52,0.00,,---,0.00,VWS V14.00,2013-05-19 13:32:00,
2013-05-19 07:34:00,35.1,18.8,0.00,SW,219,0.0,0.0,51,0.00,,---,0.00,VWS V14.00,2013-05-19 13:34:00,
2013-05-19 07:35:00,35.1,18.8,0.00,SW,218,0.0,0.0,51,0.00,,---,0.00,VWS V14.00,2013-05-19 13:35:00,
2013-05-19 07:36:00,35.1,18.8,0.00,SSW,213,0.0,0.0,51,0.00,,---,0.00,VWS V14.00,2013-05-19 13:36:00,
2013-05-19 07:37:00,35.1,18.8,0.00,SW,219,0.0,0.0,51,0.00,,---,0.00,VWS V14.00,2013-05-19 13:37:00,
2013-05-19 07:39:00,35.2,18.9,0.00,SW,219,0.0,0.0,51,0.00,,---,0.00,VWS V14.00,2013-05-19 13:39:00,
2013-05-19 07:40:00,35.2,18.9,0.00,SW,218,0.0,0.0,51,0.00,,---,0.00,VWS V14.00,2013-05-19 13:40:00,
2013-05-19 07:41:00,35.2,18.9,0.00,SW,219,0.0,0.0,51,0.00,,---,0.00,VWS V14.00,2013-05-19 13:41:00,
2013-05-19 07:42:00,35.2,18.9,0.00,SW,216,0.0,0.0,51,0.00,,---,0.00,VWS V14.00,2013-05-19 13:42:00,
2013-05-19 07:43:00,35.2,18.9,0.00,SW,216,0.0,0.0,51,0.00,,---,0.00,VWS V14.00,2013-05-19 13:43:00,
2013-05-19 07:44:00,35.2,18.9,0.00,SSE,166,3.1,3.6,51,0.00,,---,0.00,VWS V14.00,2013-05-19 13:44:00,
2013-05-19 07:45:00,35.4,18.6,0.00,SE,143,0.0,3.6,50,0.00,,---,0.00,VWS V14.00,2013-05-19 13:45:00,
2013-05-19 07:46:00,35.4,18.6,0.00,SSE,157,0.0,0.0,50,0.00,,---,0.00,VWS V14.00,2013-05-19 13:46:00,
2013-05-19 07:47:00,35.4,18.6,0.00,SSE,157,0.0,0.0,50,0.00,,---,0.00,VWS V14.00,2013-05-19 13:47:00,
2013-05-19 07:48:00,35.4,18.6,0.00,SSE,157,0.0,0.0,50,0.00,,---,0.00,VWS V14.00,2013-05-19 13:48:00,
2013-05-19 07:49:00,35.6,18.3,0.00,SSE,153,0.0,0.0,49,0.00,,---,0.00,VWS V14.00,2013-05-19 13:49:00,
2013-05-19 07:51:00,35.6,18.3,0.00,SSE,157,0.0,0.0,49,0.00,,---,0.00,VWS V14.00,2013-05-19 13:51:00,
2013-05-19 07:52:00,35.6,18.3,0.00,SSE,158,0.0,0.0,49,0.00,,---,0.00,VWS V14.00,2013-05-19 13:52:00,
2013-05-19 07:53:00,35.6,18.3,0.00,SSE,158,0.0,0.0,49,0.00,,---,0.00,VWS V14.00,2013-05-19 13:53:00,
2013-05-19 07:54:00,35.6,18.3,0.00,SW,221,0.0,0.0,49,0.00,,---,0.00,VWS V14.00,2013-05-19 13:54:00,
2013-05-19 07:56:00,35.8,18.5,0.00,ESE,117,4.9,4.9,49,0.00,,---,0.00,VWS V14.00,2013-05-19 13:56:00,
2013-05-19 07:58:00,35.8,18.5,0.00,SSW,208,0.0,3.1,49,0.00,,---,0.00,VWS V14.00,2013-05-19 13:58:00,
2013-05-19 07:59:00,35.8,18.0,0.00,SE,138,3.1,3.6,48,0.00,,---,0.00,VWS V14.00,2013-05-19 13:59:00,
2013-05-19 08:01:00,36.0,18.2,0.00,WSW,257,0.0,3.1,48,0.00,,---,0.00,VWS V14.00,2013-05-19 14:01:00,
2013-05-19 08:02:00,36.1,18.4,0.00,WSW,257,0.0,0.0,48,0.00,,---,0.00,VWS V14.00,2013-05-19 14:02:00,
2013-05-19 08:03:00,36.1,18.4,0.00,ESE,116,3.1,3.6,48,0.00,,---,0.00,VWS V14.00,2013-05-19 14:03:00,
2013-05-19 08:05:00,36.1,18.8,0.00,WSW,246,0.0,0.0,49,0.00,,---,0.00,VWS V14.00,2013-05-19 14:05:00,
2013-05-19 08:06:00,36.3,19.0,0.00,WSW,257,2.7,3.6,49,0.00,,---,0.00,VWS V14.00,2013-05-19 14:06:00,
2013-05-19 08:07:00,36.5,19.2,0.00,SW,229,0.0,2.7,49,0.00,,---,0.00,VWS V14.00,2013-05-19 14:07:00,
2013-05-19 08:08:00,36.7,19.3,0.00,West,261,2.2,2.7,49,0.00,,---,0.00,VWS V14.00,2013-05-19 14:08:00,
2013-05-19 08:10:00,37.0,19.7,0.00,WSW,254,0.0,0.0,49,0.00,,---,0.00,VWS V14.00,2013-05-19 14:10:00,
2013-05-19 08:11:00,37.0,19.7,0.00,SW,233,0.0,0.0,49,0.00,,---,0.00,VWS V14.00,2013-05-19 14:11:00,
2013-05-19 08:12:00,37.2,19.8,0.00,WSW,238,3.6,3.6,49,0.00,,---,0.00,VWS V14.00,2013-05-19 14:12:00,
2013-05-19 08:13:00,37.4,20.0,0.00,WSW,247,0.0,3.6,49,0.00,,---,0.00,VWS V14.00,2013-05-19 14:13:00,
2013-05-19 08:15:00,37.6,20.2,0.00,WSW,249,0.0,0.0,49,0.00,,---,0.00,VWS V14.00,2013-05-19 14:15:00,
2013-05-19 08:16:00,37.8,20.3,0.00,NW,304,0.0,0.0,49,0.00,,---,0.00,VWS V14.00,2013-05-19 14:16:00,
2013-05-19 08:17:00,37.8,20.3,0.00,NW,304,0.0,0.0,49,0.00,,---,0.00,VWS V14.00,2013-05-19 14:17:00,
2013-05-19 08:18:00,37.9,20.0,0.00,WNW,299,0.0,0.0,48,0.00,,---,0.00,VWS V14.00,2013-05-19 14:18:00,
2013-05-19 08:19:00,38.1,20.2,0.00,WSW,245,2.7,2.7,48,0.00,,---,0.00,VWS V14.00,2013-05-19 14:19:00,
2013-05-19 08:20:00,38.3,19.9,0.00,SW,219,0.0,0.0,47,0.00,,---,0.00,VWS V14.00,2013-05-19 14:20:00,
2013-05-19 08:21:00,38.5,20.0,0.00,SW,222,0.0,0.0,47,0.00,,---,0.00,VWS V14.00,2013-05-19 14:21:00,
2013-05-19 08:22:00,38.5,20.0,0.00,SW,222,0.0,0.0,47,0.00,,---,0.00,VWS V14.00,2013-05-19 14:22:00,
2013-05-19 08:23:00,38.7,20.2,0.00,SW,222,0.0,0.0,47,0.00,,---,0.00,VWS V14.00,2013-05-19 14:23:00,
2013-05-19 08:24:00,38.7,20.2,0.00,WNW,289,0.0,0.0,47,0.00,,---,0.00,VWS V14.00,2013-05-19 14:24:00,
2013-05-19 08:25:00,38.8,20.4,0.00,WNW,295,0.0,0.0,47,0.00,,---,0.00,VWS V14.00,2013-05-19 14:25:00,
2013-05-19 08:27:00,39.0,20.5,0.00,NW,308,0.0,3.6,47,0.00,,---,0.00,VWS V14.00,2013-05-19 14:27:00,
2013-05-19 08:28:00,39.2,20.2,0.00,SW,229,0.0,0.0,46,0.00,,---,0.00,VWS V14.00,2013-05-19 14:28:00,
2013-05-19 08:29:00,39.4,20.3,0.00,WSW,238,0.0,0.0,46,0.00,,---,0.00,VWS V14.00,2013-05-19 14:29:00,
2013-05-19 08:31:00,39.6,20.0,0.00,WSW,238,0.0,0.0,45,0.00,,---,0.00,VWS V14.00,2013-05-19 14:31:00,
2013-05-19 08:32:00,39.7,20.1,0.00,SE,136,0.0,0.0,45,0.00,,---,0.00,VWS V14.00,2013-05-19 14:32:00,
2013-05-19 08:33:00,39.7,20.1,0.00,ENE,66,3.6,3.6,45,0.00,,---,0.00,VWS V14.00,2013-05-19 14:33:00,
2013-05-19 08:34:00,39.9,20.3,0.00,ENE,64,2.7,3.6,45,0.00,,---,0.00,VWS V14.00,2013-05-19 14:34:00,
2013-05-19 08:36:00,40.1,20.5,0.00,East,97,3.6,3.6,45,0.00,,---,0.00,VWS V14.00,2013-05-19 14:36:00,
2013-05-19 08:37:00,40.3,20.1,0.00,ENE,70,2.7,3.6,44,0.00,,---,0.00,VWS V14.00,2013-05-19 14:37:00,
2013-05-19 08:38:00,40.5,20.3,0.00,ESE,111,3.1,3.1,44,0.00,,---,0.00,VWS V14.00,2013-05-19 14:38:00,
2013-05-19 08:39:00,40.5,20.3,0.00,ESE,110,3.1,3.1,44,0.00,,---,0.00,VWS V14.00,2013-05-19 14:39:00,
2013-05-19 08:41:00,40.6,20.5,0.00,East,101,2.7,4.9,44,0.00,,---,0.00,VWS V14.00,2013-05-19 14:41:00,
2013-05-19 08:42:00,40.8,20.6,0.00,SE,129,4.0,4.0,44,0.00,,---,0.00,VWS V14.00,2013-05-19 14:42:00,
2013-05-19 08:43:00,41.0,20.2,0.00,ENE,68,0.0,4.0,43,0.00,,---,0.00,VWS V14.00,2013-05-19 14:43:00,
2013-05-19 08:44:00,41.0,20.2,0.00,East,90,3.1,3.6,43,0.00,,---,0.00,VWS V14.00,2013-05-19 14:44:00,
2013-05-19 08:46:00,41.4,20.0,0.00,ESE,109,5.8,5.8,42,0.00,,---,0.00,VWS V14.00,2013-05-19 14:46:00,
2013-05-19 08:47:00,41.5,20.2,0.00,ESE,115,8.3,8.3,42,0.00,,---,0.00,VWS V14.00,2013-05-19 14:47:00,
2013-05-19 08:48:00,41.7,20.3,0.00,ESE,115,3.6,8.3,42,0.00,,---,0.00,VWS V14.00,2013-05-19 14:48:00,
2013-05-19 08:49:00,41.7,20.3,0.00,East,79,8.3,8.3,42,0.00,,---,0.00,VWS V14.00,2013-05-19 14:49:00,
2013-05-19 08:51:00,42.1,20.7,0.00,ESE,110,3.6,3.6,42,0.00,,---,0.00,VWS V14.00,2013-05-19 14:51:00,
2013-05-19 08:52:00,42.1,20.7,0.00,East,94,6.3,6.3,42,0.00,,---,0.00,VWS V14.00,2013-05-19 14:52:00,
2013-05-19 08:53:00,42.3,20.8,0.00,West,273,4.0,7.6,42,0.00,,---,0.00,VWS V14.00,2013-05-19 14:53:00,
2013-05-19 08:54:00,42.3,20.8,0.00,ENE,71,3.6,7.6,42,0.00,,---,0.00,VWS V14.00,2013-05-19 14:54:00,
2013-05-19 08:56:00,42.6,20.6,0.00,East,92,3.6,9.6,41,0.00,,---,0.00,VWS V14.00,2013-05-19 14:56:00,
2013-05-19 08:57:00,42.6,20.6,0.00,ESE,114,8.3,8.3,41,0.00,,---,0.00,VWS V14.00,2013-05-19 14:57:00,
2013-05-19 08:58:00,42.8,20.8,0.00,East,98,5.8,5.8,41,0.00,,---,0.00,VWS V14.00,2013-05-19 14:58:00,
2013-05-19 08:59:00,42.8,20.8,0.00,ESE,114,6.3,9.2,41,0.00,,---,0.00,VWS V14.00,2013-05-19 14:59:00,
2013-05-19 09:02:00,43.2,21.1,0.00,SE,139,4.0,5.4,41,0.00,,---,0.00,VWS V14.00,2013-05-19 15:02:00,
2013-05-19 09:03:00,43.3,21.2,0.00,SE,143,7.6,7.6,41,0.00,,---,0.00,VWS V14.00,2013-05-19 15:03:00,
2013-05-19 09:04:00,43.3,21.2,0.00,East,101,5.4,7.6,41,0.00,,---,0.00,VWS V14.00,2013-05-19 15:04:00,
2013-05-19 09:05:00,43.5,20.8,0.00,East,93,5.8,8.3,40,0.00,,---,0.00,VWS V14.00,2013-05-19 15:05:00,
2013-05-19 09:07:00,43.7,21.0,0.00,ESE,117,8.1,8.1,40,0.00,,---,0.00,VWS V14.00,2013-05-19 15:07:00,
2013-05-19 09:09:00,43.9,21.1,0.00,SSE,161,5.8,8.1,40,0.00,,---,0.00,VWS V14.00,2013-05-19 15:09:00,
2013-05-19 09:10:00,44.1,21.3,0.00,ESE,119,5.4,5.4,40,0.00,,---,0.00,VWS V14.00,2013-05-19 15:10:00,
2013-05-19 09:12:00,44.2,21.5,0.00,East,79,7.6,7.6,40,0.00,,---,0.00,VWS V14.00,2013-05-19 15:12:00,
2013-05-19 09:14:00,44.4,21.6,0.00,ESE,107,3.1,6.3,40,0.00,,---,0.00,VWS V14.00,2013-05-19 15:14:00,
2013-05-19 09:15:00,44.6,21.8,0.00,SE,144,5.4,8.3,40,0.00,,---,0.00,VWS V14.00,2013-05-19 15:15:00,
2013-05-19 09:17:00,45.0,22.1,0.00,ESE,120,8.1,8.1,40,0.00,,---,0.00,VWS V14.00,2013-05-19 15:17:00,
2013-05-19 09:18:00,45.0,22.1,0.00,ESE,119,5.8,9.2,40,0.00,,---,0.00,VWS V14.00,2013-05-19 15:18:00,
2013-05-19 09:19:00,45.1,22.3,0.00,SE,140,5.4,8.1,40,0.00,,---,0.00,VWS V14.00,2013-05-19 15:19:00,
2013-05-19 09:20:00,45.3,22.4,0.00,East,98,6.3,6.3,40,0.00,,---,0.00,VWS V14.00,2013-05-19 15:20:00,
2013-05-19 09:22:00,45.5,22.6,0.00,ESE,119,8.7,11.0,40,0.00,,---,0.00,VWS V14.00,2013-05-19 15:22:00,
2013-05-19 09:23:00,45.5,22.0,0.00,ENE,73,6.3,11.0,39,0.00,,---,0.00,VWS V14.00,2013-05-19 15:23:00,
2013-05-19 09:24:00,45.7,22.2,0.00,SE,141,5.8,5.8,39,0.00,,---,0.00,VWS V14.00,2013-05-19 15:24:00,
2013-05-19 09:25:00,45.9,22.3,0.00,SSE,168,10.1,10.1,39,0.00,,---,0.00,VWS V14.00,2013-05-19 15:25:00,
2013-05-19 09:28:00,46.0,22.5,0.00,WSW,253,6.7,8.7,39,0.00,,---,0.00,VWS V14.00,2013-05-19 15:28:00,
2013-05-19 09:29:00,46.0,22.5,0.00,East,88,8.1,8.1,39,0.00,,---,0.00,VWS V14.00,2013-05-19 15:29:00,
2013-05-19 09:30:00,46.2,22.6,0.00,East,93,10.5,10.5,39,0.00,,---,0.00,VWS V14.00,2013-05-19 15:30:00,
2013-05-19 09:33:00,46.4,22.2,0.00,SE,131,3.1,8.1,38,0.00,,---,0.00,VWS V14.00,2013-05-19 15:33:00,
2013-05-19 09:34:00,46.4,22.2,0.00,ENE,75,5.8,5.8,38,0.00,,---,0.00,VWS V14.00,2013-05-19 15:34:00,
2013-05-19 09:35:00,46.4,22.2,0.00,SE,128,11.0,11.0,38,0.00,,---,0.00,VWS V14.00,2013-05-19 15:35:00,
2013-05-19 09:38:00,46.6,22.4,0.00,ESE,105,15.0,15.0,38,0.00,,---,0.00,VWS V14.00,2013-05-19 15:38:00,
2013-05-19 09:39:00,46.6,22.4,0.00,ESE,112,5.8,11.0,38,0.00,,---,0.00,VWS V14.00,2013-05-19 15:39:00,
2013-05-19 09:40:00,46.6,22.4,0.00,ENE,74,4.0,4.0,38,0.00,,---,0.00,VWS V14.00,2013-05-19 15:40:00,
2013-05-19 09:43:00,46.8,22.5,0.00,SE,138,5.8,13.2,38,0.00,,---,0.00,VWS V14.00,2013-05-19 15:43:00,
2013-05-19 09:44:00,46.8,22.5,0.00,SE,135,12.3,12.3,38,0.00,,---,0.00,VWS V14.00,2013-05-19 15:44:00,
2013-05-19 09:45:00,46.9,22.0,0.00,ESE,118,8.3,13.6,37,0.00,,---,0.00,VWS V14.00,2013-05-19 15:45:00,
2013-05-19 09:46:00,46.9,22.0,0.00,SE,141,4.5,13.6,37,0.00,,---,0.00,VWS V14.00,2013-05-19 15:46:00,
2013-05-19 09:48:00,46.9,22.0,0.00,ESE,103,7.6,10.1,37,0.00,,---,0.00,VWS V14.00,2013-05-19 15:48:00,
2013-05-19 09:49:00,46.9,22.0,0.00,ESE,117,5.4,10.1,37,0.00,,---,0.00,VWS V14.00,2013-05-19 15:49:00,
2013-05-19 09:50:00,47.1,22.2,0.00,ESE,111,9.6,9.6,37,0.00,,---,0.00,VWS V14.00,2013-05-19 15:50:00,
2013-05-19 09:51:00,47.1,22.2,0.00,ESE,116,8.1,9.6,37,0.00,,---,0.00,VWS V14.00,2013-05-19 15:51:00,
2013-05-19 09:53:00,47.1,22.2,0.00,ESE,121,10.1,10.1,37,0.00,,---,0.00,VWS V14.00,2013-05-19 15:53:00,
2013-05-19 09:54:00,47.1,22.2,0.00,East,79,5.8,14.1,37,0.00,,---,0.00,VWS V14.00,2013-05-19 15:54:00,
2013-05-19 09:55:00,47.3,22.4,0.00,East,93,8.3,8.7,37,0.00,,---,0.00,VWS V14.00,2013-05-19 15:55:00,
2013-05-19 09:56:00,47.3,22.4,0.00,South,185,8.1,8.3,37,0.00,,---,0.00,VWS V14.00,2013-05-19 15:56:00,
2013-05-19 09:58:00,47.3,22.4,0.00,ESE,117,6.3,8.1,37,0.00,,---,0.00,VWS V14.00,2013-05-19 15:58:00,
2013-05-19 09:59:00,47.3,22.4,0.00,ESE,120,11.0,11.0,37,0.00,,---,0.00,VWS V14.00,2013-05-19 15:59:00,
2013-05-19 10:00:00,47.3,22.4,0.00,East,91,10.1,11.0,37,0.00,,---,0.00,VWS V14.00,2013-05-19 16:00:00,
2013-05-19 10:01:00,47.5,22.5,0.00,South,186,5.4,10.5,37,0.00,,---,0.00,VWS V14.00,2013-05-19 16:01:00,
2013-05-19 10:03:00,47.5,21.9,0.00,ESE,119,7.6,7.6,36,0.00,,---,0.00,VWS V14.00,2013-05-19 16:03:00,
2013-05-19 10:04:00,47.5,21.9,0.00,ESE,114,3.6,7.6,36,0.00,,---,0.00,VWS V14.00,2013-05-19 16:04:00,
2013-05-19 10:05:00,47.7,22.0,0.00,ESE,114,12.3,12.3,36,0.00,,---,0.00,VWS V14.00,2013-05-19 16:05:00,
2013-05-19 10:06:00,47.7,22.0,0.00,SE,128,12.3,12.3,36,0.00,,---,0.00,VWS V14.00,2013-05-19 16:06:00,
2013-05-19 10:08:00,47.8,22.9,0.00,NE,48,4.9,8.1,37,0.00,,---,0.00,VWS V14.00,2013-05-19 16:08:00,
2013-05-19 10:09:00,47.8,22.9,0.00,East,82,5.4,5.4,37,0.00,,---,0.00,VWS V14.00,2013-05-19 16:09:00,
2013-05-19 10:10:00,47.8,22.9,0.00,SSE,158,6.3,6.3,37,0.00,,---,0.00,VWS V14.00,2013-05-19 16:10:00,
2013-05-19 10:11:00,48.0,23.0,0.00,East,96,4.5,7.6,37,0.00,,---,0.00,VWS V14.00,2013-05-19 16:11:00,
2013-05-19 10:13:00,48.0,23.0,0.00,East,82,5.8,7.6,37,0.00,,---,0.00,VWS V14.00,2013-05-19 16:13:00,
2013-05-19 10:14:00,48.0,23.0,0.00,SE,134,4.9,7.6,37,0.00,,---,0.00,VWS V14.00,2013-05-19 16:14:00,
2013-05-19 10:15:00,48.2,22.5,0.00,SSW,199,0.0,2.7,36,0.00,,---,0.00,VWS V14.00,2013-05-19 16:15:00,
2013-05-19 10:16:00,48.2,22.5,0.00,ESE,121,5.8,5.8,36,0.00,,---,0.00,VWS V14.00,2013-05-19 16:16:00,
2013-05-19 10:18:00,48.4,22.7,0.00,SE,135,5.4,6.3,36,0.00,,---,0.00,VWS V14.00,2013-05-19 16:18:00,
2013-05-19 10:19:00,48.6,22.8,0.00,ESE,105,5.4,6.3,36,0.00,,---,0.00,VWS V14.00,2013-05-19 16:19:00,
2013-05-19 10:20:00,48.6,22.8,0.00,ESE,105,3.6,3.6,36,0.00,,---,0.00,VWS V14.00,2013-05-19 16:20:00,
2013-05-19 10:21:00,48.6,22.8,0.00,ESE,106,5.8,11.4,36,0.00,,---,0.00,VWS V14.00,2013-05-19 16:21:00,
2013-05-19 10:24:00,48.7,23.0,0.00,SE,137,8.1,10.1,36,0.00,,---,0.00,VWS V14.00,2013-05-19 16:24:00,
2013-05-19 10:25:00,48.7,23.0,0.00,East,97,11.0,12.8,36,0.00,,---,0.00,VWS V14.00,2013-05-19 16:25:00,
2013-05-19 10:26:00,48.9,23.2,0.00,East,84,8.3,13.2,36,0.00,,---,0.00,VWS V14.00,2013-05-19 16:26:00,
2013-05-19 10:29:00,48.9,23.2,0.00,ESE,123,5.8,10.1,36,0.00,,---,0.00,VWS V14.00,2013-05-19 16:29:00,
2013-05-19 10:30:00,49.1,23.3,0.00,East,99,3.6,7.6,36,0.00,,---,0.00,VWS V14.00,2013-05-19 16:30:00,
2013-05-19 10:31:00,49.1,23.3,0.00,SE,136,6.3,7.6,36,0.00,,---,0.00,VWS V14.00,2013-05-19 16:31:00,
2013-05-19 10:34:00,49.3,23.5,0.00,East,100,5.8,11.9,36,0.00,,---,0.00,VWS V14.00,2013-05-19 16:34:00,
2013-05-19 10:35:00,49.5,23.6,0.00,SE,135,2.7,7.6,36,0.00,,---,0.00,VWS V14.00,2013-05-19 16:35:00,
2013-05-19 10:36:00,49.5,23.6,0.00,East,101,5.4,8.7,36,0.00,,---,0.00,VWS V14.00,2013-05-19 16:36:00,
2013-05-19 10:39:00,49.5,23.6,0.00,East,90,10.1,10.1,36,0.00,,---,0.00,VWS V14.00,2013-05-19 16:39:00,
2013-05-19 10:40:00,49.5,23.6,0.00,SE,125,5.8,10.1,36,0.00,,---,0.00,VWS V14.00,2013-05-19 16:40:00,
2013-05-19 10:41:00,49.6,23.8,0.00,ESE,109,11.0,11.0,36,0.00,,---,0.00,VWS V14.00,2013-05-19 16:41:00,
2013-05-19 10:44:00,49.6,23.1,0.00,SSW,196,0.0,6.3,35,0.00,,---,0.00,VWS V14.00,2013-05-19 16:44:00,
2013-05-19 10:45:00,49.6,23.1,0.00,SSW,202,0.0,0.0,35,0.00,,---,0.00,VWS V14.00,2013-05-19 16:45:00,
2013-05-19 10:46:00,49.6,23.8,0.00,SE,145,8.1,8.7,36,0.00,,---,0.00,VWS V14.00,2013-05-19 16:46:00,
2013-05-19 10:49:00,49.8,23.3,0.00,SE,141,6.3,6.3,35,0.00,,---,0.00,VWS V14.00,2013-05-19 16:49:00,
2013-05-19 10:50:00,50.0,23.4,0.00,ESE,107,8.1,8.1,35,0.00,,---,0.00,VWS V14.00,2013-05-19 16:50:00,
2013-05-19 10:51:00,50.0,22.8,0.00,ESE,109,7.6,16.3,34,0.00,,---,0.00,VWS V14.00,2013-05-19 16:51:00,
2013-05-19 10:52:00,50.0,22.8,0.00,SE,124,8.7,8.7,34,0.00,,---,0.00,VWS V14.00,2013-05-19 16:52:00,
2013-05-19 10:54:00,50.0,22.8,0.00,ESE,112,10.1,13.2,34,0.00,,---,0.00,VWS V14.00,2013-05-19 16:54:00,
2013-05-19 10:55:00,50.2,22.9,0.00,East,82,10.5,10.5,34,0.00,,---,0.00,VWS V14.00,2013-05-19 16:55:00,
2013-05-19 10:56:00,50.2,22.9,0.00,ESE,123,4.0,4.0,34,0.00,,---,0.00,VWS V14.00,2013-05-19 16:56:00,
2013-05-19 10:57:00,50.2,22.9,0.00,ESE,105,5.8,10.5,34,0.00,,---,0.00,VWS V14.00,2013-05-19 16:57:00,
2013-05-19 10:59:00,50.4,23.1,0.00,South,178,4.9,4.9,34,0.00,,---,0.00,VWS V14.00,2013-05-19 16:59:00,
2013-05-19 11:00:00,50.4,23.1,0.00,ESE,109,6.3,8.3,34,0.00,,---,0.00,VWS V14.00,2013-05-19 17:00:00,
2013-05-19 11:01:00,50.4,23.1,0.00,ESE,118,5.8,5.8,34,0.00,,---,0.00,VWS V14.00,2013-05-19 17:01:00,
2013-05-19 11:02:00,50.4,23.1,0.00,ESE,104,6.3,8.7,34,0.00,,---,0.00,VWS V14.00,2013-05-19 17:02:00,
2013-05-19 11:04:00,50.5,23.2,0.00,SSE,152,4.9,6.3,34,0.00,,---,0.00,VWS V14.00,2013-05-19 17:04:00,
2013-05-19 11:05:00,50.5,22.5,0.00,SE,136,5.8,8.1,33,0.00,,---,0.00,VWS V14.00,2013-05-19 17:05:00,
2013-05-19 11:07:00,50.7,22.7,0.00,East,91,5.4,5.4,33,0.00,,---,0.00,VWS V14.00,2013-05-19 17:07:00,
2013-05-19 11:09:00,50.9,22.8,0.00,SE,128,3.6,5.4,33,0.00,,---,0.00,VWS V14.00,2013-05-19 17:09:00,
2013-05-19 11:10:00,50.9,22.1,0.00,SE,130,10.1,12.8,32,0.00,,---,0.00,VWS V14.00,2013-05-19 17:10:00,
2013-05-19 11:12:00,50.9,22.1,0.00,ENE,70,12.8,12.8,32,0.00,,---,0.00,VWS V14.00,2013-05-19 17:12:00,
2013-05-19 11:13:00,50.9,22.1,0.00,East,91,5.4,12.8,32,0.00,,---,0.00,VWS V14.00,2013-05-19 17:13:00,
2013-05-19 11:14:00,50.9,22.1,0.00,East,101,8.1,12.8,32,0.00,,---,0.00,VWS V14.00,2013-05-19 17:14:00,
2013-05-19 11:15:00,51.1,22.3,0.00,ESE,105,8.7,10.5,32,0.00,,---,0.00,VWS V14.00,2013-05-19 17:15:00,
2013-05-19 11:17:00,51.1,22.3,0.00,ESE,111,11.0,11.9,32,0.00,,---,0.00,VWS V14.00,2013-05-19 17:17:00,
2013-05-19 11:18:00,51.1,22.3,0.00,SSE,151,3.1,8.3,32,0.00,,---,0.00,VWS V14.00,2013-05-19 17:18:00,
2013-05-19 11:19:00,51.1,22.3,0.00,ESE,121,8.3,8.3,32,0.00,,---,0.00,VWS V14.00,2013-05-19 17:19:00,
2013-05-19 11:20:00,51.1,22.3,0.00,ENE,66,7.6,7.6,32,0.00,,---,0.00,VWS V14.00,2013-05-19 17:20:00,
2013-05-19 11:22:00,51.1,21.5,0.00,East,95,8.3,8.7,31,0.00,,---,0.00,VWS V14.00,2013-05-19 17:22:00,
2013-05-19 11:23:00,51.1,22.3,0.00,SE,142,12.8,12.8,32,0.00,,---,0.00,VWS V14.00,2013-05-19 17:23:00,
2013-05-19 11:24:00,51.3,22.4,0.00,ESE,106,5.8,7.6,32,0.00,,---,0.00,VWS V14.00,2013-05-19 17:24:00,
2013-05-19 11:25:00,51.3,22.4,0.00,ESE,109,12.8,12.8,32,0.00,,---,0.00,VWS V14.00,2013-05-19 17:25:00,
2013-05-19 11:27:00,51.3,22.4,0.00,SE,139,5.4,6.3,32,0.00,,---,0.00,VWS V14.00,2013-05-19 17:27:00,
2013-05-19 11:28:00,51.4,22.6,0.00,ESE,111,5.8,8.7,32,0.00,,---,0.00,VWS V14.00,2013-05-19 17:28:00,
2013-05-19 11:29:00,51.4,21.8,0.00,SE,144,5.4,10.1,31,0.00,,---,0.00,VWS V14.00,2013-05-19 17:29:00,
2013-05-19 11:30:00,51.4,21.8,0.00,ESE,106,6.3,6.3,31,0.00,,---,0.00,VWS V14.00,2013-05-19 17:30:00,
2013-05-19 11:32:00,51.4,21.8,0.00,SSW,208,2.7,10.1,31,0.00,,---,0.00,VWS V14.00,2013-05-19 17:32:00,
2013-05-19 11:33:00,51.4,21.8,0.00,South,180,3.6,10.1,31,0.00,,---,0.00,VWS V14.00,2013-05-19 17:33:00,
2013-05-19 11:35:00,51.4,21.1,0.00,SE,141,5.4,8.7,30,0.00,,---,0.00,VWS V14.00,2013-05-19 17:35:00,
2013-05-19 11:38:00,51.4,21.8,0.00,South,190,5.4,10.1,31,0.00,,---,0.00,VWS V14.00,2013-05-19 17:38:00,
2013-05-19 11:40:00,51.4,21.1,0.00,ESE,116,9.6,9.6,30,0.00,,---,0.00,VWS V14.00,2013-05-19 17:40:00,
2013-05-19 11:43:00,51.6,21.2,0.00,SSE,149,4.0,10.1,30,0.00,,---,0.00,VWS V14.00,2013-05-19 17:43:00,
2013-05-19 11:45:00,51.6,21.2,0.00,SSW,202,8.3,12.3,30,0.00,,---,0.00,VWS V14.00,2013-05-19 17:45:00,
2013-05-19 11:46:00,51.6,21.2,0.00,SE,138,5.4,8.3,30,0.00,,---,0.00,VWS V14.00,2013-05-19 17:46:00,
2013-05-19 11:48:00,51.8,21.4,0.00,SSW,209,8.1,10.5,30,0.00,,---,0.00,VWS V14.00,2013-05-19 17:48:00,
2013-05-19 11:49:00,51.8,21.4,0.00,ESE,122,8.1,10.5,30,0.00,,---,0.00,VWS V14.00,2013-05-19 17:49:00,
2013-05-19 11:50:00,51.8,21.4,0.00,South,186,7.6,8.1,30,0.00,,---,0.00,VWS V14.00,2013-05-19 17:50:00,
2013-05-19 11:51:00,51.8,21.4,0.00,SE,145,9.2,9.2,30,0.00,,---,0.00,VWS V14.00,2013-05-19 17:51:00,
2013-05-19 11:53:00,52.0,21.5,0.00,ESE,117,12.3,12.3,30,0.00,,---,0.00,VWS V14.00,2013-05-19 17:53:00,
2013-05-19 11:54:00,52.0,21.5,0.00,East,96,8.7,12.3,30,0.00,,---,0.00,VWS V14.00,2013-05-19 17:54:00,
2013-05-19 11:55:00,52.0,20.7,0.00,ESE,120,10.5,10.5,29,0.00,,---,0.00,VWS V14.00,2013-05-19 17:55:00,
2013-05-19 11:56:00,52.0,20.7,0.00,ESE,118,7.6,7.6,29,0.00,,---,0.00,VWS V14.00,2013-05-19 17:56:00,
2013-05-19 11:58:00,52.0,21.5,0.00,ESE,112,8.1,8.7,30,0.00,,---,0.00,VWS V14.00,2013-05-19 17:58:00,
2013-05-19 11:59:00,52.0,21.5,0.00,SE,139,8.3,8.7,30,0.00,,---,0.00,VWS V14.00,2013-05-19 17:59:00,
2013-05-19 12:01:00,52.0,20.7,0.00,ENE,68,5.4,6.3,29,0.00,,---,0.00,VWS V14.00,2013-05-19 18:01:00,
2013-05-19 12:03:00,52.2,21.7,0.00,ESE,106,5.8,7.6,30,0.00,,---,0.00,VWS V14.00,2013-05-19 18:03:00,
2013-05-19 12:04:00,52.2,21.7,0.00,SE,131,8.7,12.3,30,0.00,,---,0.00,VWS V14.00,2013-05-19 18:04:00,
2013-05-19 12:06:00,52.2,21.7,0.00,ESE,119,3.6,8.7,30,0.00,,---,0.00,VWS V14.00,2013-05-19 18:06:00,
2013-05-19 12:08:00,52.3,21.8,0.00,SSE,167,7.6,7.6,30,0.00,,---,0.00,VWS V14.00,2013-05-19 18:08:00,
2013-05-19 12:09:00,52.3,21.8,0.00,ESE,123,6.3,10.5,30,0.00,,---,0.00,VWS V14.00,2013-05-19 18:09:00,
2013-05-19 12:11:00,52.5,22.0,0.00,ESE,116,3.1,10.5,30,0.00,,---,0.00,VWS V14.00,2013-05-19 18:11:00,
2013-05-19 12:14:00,52.5,22.0,0.00,SE,131,8.1,8.7,30,0.00,,---,0.00,VWS V14.00,2013-05-19 18:14:00,
2013-05-19 12:16:00,52.7,22.2,0.00,ESE,104,6.3,8.1,30,0.00,,---,0.00,VWS V14.00,2013-05-19 18:16:00,
2013-05-19 12:19:00,52.7,22.2,0.00,SE,139,3.6,11.4,30,0.00,,---,0.00,VWS V14.00,2013-05-19 18:19:00,
2013-05-19 12:21:00,52.7,22.2,0.00,East,86,6.3,8.1,30,0.00,,---,0.00,VWS V14.00,2013-05-19 18:21:00,
2013-05-19 12:24:00,52.9,22.3,0.00,East,101,10.1,10.1,30,0.00,,---,0.00,VWS V14.00,2013-05-19 18:24:00,
2013-05-19 12:26:00,52.9,22.3,0.00,ESE,114,5.8,8.7,30,0.00,,---,0.00,VWS V14.00,2013-05-19 18:26:00,
2013-05-19 12:29:00,52.9,22.3,0.00,SSE,150,5.8,5.8,30,0.00,,---,0.00,VWS V14.00,2013-05-19 18:29:00,
2013-05-19 12:31:00,53.1,22.5,0.00,ESE,118,5.8,6.3,30,0.00,,---,0.00,VWS V14.00,2013-05-19 18:31:00,
2013-05-19 12:32:00,53.1,22.5,0.00,SE,134,8.1,8.1,30,0.00,,---,0.00,VWS V14.00,2013-05-19 18:32:00,
2013-05-19 12:34:00,53.1,23.2,0.00,SE,128,4.0,8.1,31,0.00,,---,0.00,VWS V14.00,2013-05-19 18:34:00,
2013-05-19 12:35:00,53.2,23.4,0.00,SSW,194,8.3,8.3,31,0.00,,---,0.00,VWS V14.00,2013-05-19 18:35:00,
2013-05-19 12:36:00,53.2,23.4,0.00,ESE,117,5.4,8.1,31,0.00,,---,0.00,VWS V14.00,2013-05-19 18:36:00,
2013-05-19 12:37:00,53.2,23.4,0.00,SE,131,5.4,8.1,31,0.00,,---,0.00,VWS V14.00,2013-05-19 18:37:00,
2013-05-19 12:39:00,53.4,23.6,0.00,SE,126,11.0,11.0,31,0.00,,---,0.00,VWS V14.00,2013-05-19 18:39:00,
2013-05-19 12:40:00,53.4,23.6,0.00,East,97,3.6,11.0,31,0.00,,---,0.00,VWS V14.00,2013-05-19 18:40:00,
2013-05-19 12:41:00,53.4,22.8,0.00,East,90,8.7,13.2,30,0.00,,---,0.00,VWS V14.00,2013-05-19 18:41:00,
2013-05-19 12:42:00,53.4,22.8,0.00,East,92,5.4,13.2,30,0.00,,---,0.00,VWS V14.00,2013-05-19 18:42:00,
2013-05-19 12:44:00,53.6,22.9,0.00,ESE,117,13.2,13.2,30,0.00,,---,0.00,VWS V14.00,2013-05-19 18:44:00,
2013-05-19 12:45:00,53.6,22.9,0.00,East,85,11.0,13.2,30,0.00,,---,0.00,VWS V14.00,2013-05-19 18:45:00,
2013-05-19 12:46:00,53.6,22.9,0.00,NE,41,8.1,8.1,30,0.00,,---,0.00,VWS V14.00,2013-05-19 18:46:00,
2013-05-19 12:47:00,53.6,22.9,0.00,NE,52,10.5,10.5,30,0.00,,---,0.00,VWS V14.00,2013-05-19 18:47:00,
2013-05-19 12:49:00,53.6,22.1,0.00,East,95,8.3,8.3,29,0.00,,---,0.00,VWS V14.00,2013-05-19 18:49:00,
2013-05-19 12:50:00,53.6,22.1,0.00,SE,133,8.7,8.7,29,0.00,,---,0.00,VWS V14.00,2013-05-19 18:50:00,
2013-05-19 12:51:00,53.4,22.8,0.00,SE,132,5.4,6.3,30,0.00,,---,0.00,VWS V14.00,2013-05-19 18:51:00,
2013-05-19 12:52:00,53.4,22.8,0.00,ESE,114,5.8,5.8,30,0.00,,---,0.00,VWS V14.00,2013-05-19 18:52:00,
2013-05-19 12:54:00,53.6,22.9,0.00,ESE,120,3.6,7.6,30,0.00,,---,0.00,VWS V14.00,2013-05-19 18:54:00,
2013-05-19 12:55:00,53.6,22.9,0.00,ESE,113,7.6,9.6,30,0.00,,---,0.00,VWS V14.00,2013-05-19 18:55:00,
2013-05-19 12:56:00,53.6,22.9,0.00,ESE,103,6.3,6.3,30,0.00,,---,0.00,VWS V14.00,2013-05-19 18:56:00,
2013-05-19 12:57:00,53.6,22.9,0.00,SE,143,7.6,9.6,30,0.00,,---,0.00,VWS V14.00,2013-05-19 18:57:00,
2013-05-19 13:00:00,53.8,23.1,0.00,ESE,110,6.3,10.1,30,0.00,,---,0.00,VWS V14.00,2013-05-19 19:00:00,
2013-05-19 13:01:00,53.8,23.1,0.00,ESE,114,4.0,8.7,30,0.00,,---,0.00,VWS V14.00,2013-05-19 19:01:00,
2013-05-19 13:02:00,53.8,23.1,0.00,SE,126,7.6,8.7,30,0.00,,---,0.00,VWS V14.00,2013-05-19 19:02:00,
2013-05-19 13:05:00,53.8,23.1,0.00,SSE,161,4.0,10.5,30,0.00,,---,0.00,VWS V14.00,2013-05-19 19:05:00,
2013-05-19 13:06:00,54.0,23.2,0.00,ENE,66,7.6,8.3,30,0.00,,---,0.00,VWS V14.00,2013-05-19 19:06:00,
2013-05-19 13:08:00,54.0,23.2,0.00,East,82,8.1,11.9,30,0.00,,---,0.00,VWS V14.00,2013-05-19 19:08:00,
2013-05-19 13:10:00,54.0,23.2,0.00,SE,132,10.1,13.2,30,0.00,,---,0.00,VWS V14.00,2013-05-19 19:10:00,
2013-05-19 13:11:00,54.0,23.2,0.00,East,90,8.7,10.1,30,0.00,,---,0.00,VWS V14.00,2013-05-19 19:11:00,
2013-05-19 13:12:00,54.0,23.2,0.00,ESE,116,3.6,11.0,30,0.00,,---,0.00,VWS V14.00,2013-05-19 19:12:00,
2013-05-19 13:13:00,54.0,23.2,0.00,ENE,70,8.7,8.7,30,0.00,,---,0.00,VWS V14.00,2013-05-19 19:13:00,
2013-05-19 13:15:00,54.1,23.4,0.00,East,91,7.6,8.7,30,0.00,,---,0.00,VWS V14.00,2013-05-19 19:15:00,
2013-05-19 13:16:00,54.1,23.4,0.00,SE,126,8.7,8.7,30,0.00,,---,0.00,VWS V14.00,2013-05-19 19:16:00,
2013-05-19 13:17:00,54.1,23.4,0.00,SW,225,4.0,6.3,30,0.00,,---,0.00,VWS V14.00,2013-05-19 19:17:00,
2013-05-19 13:18:00,54.0,23.2,0.00,SE,124,4.0,10.1,30,0.00,,---,0.00,VWS V14.00,2013-05-19 19:18:00,
2013-05-19 13:20:00,54.1,23.4,0.00,SE,140,5.4,5.4,30,0.00,,---,0.00,VWS V14.00,2013-05-19 19:20:00,
2013-05-19 13:21:00,54.1,23.4,0.00,NE,46,5.4,8.1,30,0.00,,---,0.00,VWS V14.00,2013-05-19 19:21:00,
2013-05-19 13:22:00,54.1,23.4,0.00,ESE,123,8.1,8.1,30,0.00,,---,0.00,VWS V14.00,2013-05-19 19:22:00,
2013-05-19 13:23:00,54.1,23.4,0.00,East,96,11.0,14.5,30,0.00,,---,0.00,VWS V14.00,2013-05-19 19:23:00,
2013-05-19 13:25:00,54.1,23.4,0.00,ESE,106,6.7,6.7,30,0.00,,---,0.00,VWS V14.00,2013-05-19 19:25:00,
2013-05-19 13:26:00,54.1,23.4,0.00,SE,126,8.3,10.1,30,0.00,,---,0.00,VWS V14.00,2013-05-19 19:26:00,
2013-05-19 13:27:00,54.1,23.4,0.00,ESE,121,4.5,4.9,30,0.00,,---,0.00,VWS V14.00,2013-05-19 19:27:00,
2013-05-19 13:28:00,54.3,23.6,0.00,ESE,112,10.1,10.1,30,0.00,,---,0.00,VWS V14.00,2013-05-19 19:28:00,
2013-05-19 13:31:00,54.3,23.6,0.00,East,97,8.7,8.7,30,0.00,,---,0.00,VWS V14.00,2013-05-19 19:31:00,
2013-05-19 13:32:00,54.3,23.6,0.00,SSE,153,5.8,5.8,30,0.00,,---,0.00,VWS V14.00,2013-05-19 19:32:00,
2013-05-19 13:33:00,54.3,22.8,0.00,ENE,68,10.5,12.3,29,0.00,,---,0.00,VWS V14.00,2013-05-19 19:33:00,
2013-05-19 13:36:00,54.3,22.8,0.00,East,96,4.9,13.2,29,0.00,,---,0.00,VWS V14.00,2013-05-19 19:36:00,
2013-05-19 13:37:00,54.3,22.8,0.00,ESE,109,4.0,5.4,29,0.00,,---,0.00,VWS V14.00,2013-05-19 19:37:00,
2013-05-19 13:38:00,54.3,22.8,0.00,East,87,5.8,5.8,29,0.00,,---,0.00,VWS V14.00,2013-05-19 19:38:00,
2013-05-19 13:41:00,54.5,22.9,0.00,East,97,9.6,9.6,29,0.00,,---,0.00,VWS V14.00,2013-05-19 19:41:00,
2013-05-19 13:42:00,54.5,22.9,0.00,SW,218,7.2,7.2,29,0.00,,---,0.00,VWS V14.00,2013-05-19 19:42:00,
2013-05-19 13:43:00,54.5,22.9,0.00,SE,145,3.1,7.2,29,0.00,,---,0.00,VWS V14.00,2013-05-19 19:43:00,
2013-05-19 13:46:00,54.5,23.7,0.00,ESE,115,8.1,8.1,30,0.00,,---,0.00,VWS V14.00,2013-05-19 19:46:00,
2013-05-19 13:47:00,54.5,23.7,0.00,ESE,106,4.0,8.7,30,0.00,,---,0.00,VWS V14.00,2013-05-19 19:47:00,
2013-05-19 13:48:00,54.5,23.7,0.00,South,181,3.6,3.6,30,0.00,,---,0.00,VWS V14.00,2013-05-19 19:48:00,
2013-05-19 13:51:00,54.7,23.9,0.00,SE,130,6.3,7.6,30,0.00,,---,0.00,VWS V14.00,2013-05-19 19:51:00,
2013-05-19 13:52:00,54.9,24.0,0.00,SE,134,7.6,7.6,30,0.00,,---,0.00,VWS V14.00,2013-05-19 19:52:00,
2013-05-19 13:53:00,54.9,24.0,0.00,SE,127,5.8,7.6,30,0.00,,---,0.00,VWS V14.00,2013-05-19 19:53:00,
2013-05-19 13:56:00,55.0,24.2,0.00,SE,140,5.8,5.8,30,0.00,,---,0.00,VWS V14.00,2013-05-19 19:56:00,
2013-05-19 13:57:00,55.0,24.2,0.00,SE,129,6.3,6.3,30,0.00,,---,0.00,VWS V14.00,2013-05-19 19:57:00,
2013-05-19 13:58:00,55.2,24.4,0.00,SSW,205,2.2,4.0,30,0.00,,---,0.00,VWS V14.00,2013-05-19 19:58:00,
2013-05-19 14:01:00,55.2,24.4,0.00,SSE,151,6.3,6.3,30,0.00,,---,0.00,VWS V14.00,2013-05-19 20:01:00,
2013-05-19 14:02:00,55.4,23.7,0.00,SSW,213,5.8,6.3,29,0.00,,---,0.00,VWS V14.00,2013-05-19 20:02:00,
2013-05-19 14:03:00,55.4,23.7,0.00,ESE,115,3.6,5.8,29,0.00,,---,0.00,VWS V14.00,2013-05-19 20:03:00,
2013-05-19 14:06:00,55.4,23.7,0.00,East,101,5.8,5.8,29,0.00,,---,0.00,VWS V14.00,2013-05-19 20:06:00,
2013-05-19 14:07:00,55.4,23.7,0.00,SE,124,8.7,10.1,29,0.00,,---,0.00,VWS V14.00,2013-05-19 20:07:00,
2013-05-19 14:08:00,55.4,23.7,0.00,SE,143,4.9,8.7,29,0.00,,---,0.00,VWS V14.00,2013-05-19 20:08:00,
2013-05-19 14:11:00,55.6,23.9,0.00,SSE,153,4.9,6.3,29,0.00,,---,0.00,VWS V14.00,2013-05-19 20:11:00,
2013-05-19 14:12:00,55.8,24.0,0.00,East,90,4.9,6.7,29,0.00,,---,0.00,VWS V14.00,2013-05-19 20:12:00,
2013-05-19 14:13:00,55.8,24.0,0.00,ESE,103,7.6,7.6,29,0.00,,---,0.00,VWS V14.00,2013-05-19 20:13:00,
2013-05-19 14:16:00,55.6,23.9,0.00,SSE,160,3.6,5.8,29,0.00,,---,0.00,VWS V14.00,2013-05-19 20:16:00,
2013-05-19 14:17:00,55.6,23.0,0.00,SSE,166,3.1,5.8,28,0.00,,---,0.00,VWS V14.00,2013-05-19 20:17:00,
2013-05-19 14:18:00,55.6,23.9,0.00,SE,145,6.3,6.3,29,0.00,,---,0.00,VWS V14.00,2013-05-19 20:18:00,
2013-05-19 14:21:00,55.4,23.7,0.00,SW,220,5.8,5.8,29,0.00,,---,0.00,VWS V14.00,2013-05-19 20:21:00,
2013-05-19 14:22:00,55.6,23.0,0.00,SE,135,3.1,5.8,28,0.00,,---,0.00,VWS V14.00,2013-05-19 20:22:00,
2013-05-19 14:23:00,55.6,23.0,0.00,SW,223,2.2,4.0,28,0.00,,---,0.00,VWS V14.00,2013-05-19 20:23:00,
2013-05-19 14:24:00,55.4,22.9,0.00,North,11,2.2,3.1,28,0.00,,---,0.00,VWS V14.00,2013-05-19 20:24:00,
2013-05-19 14:27:00,54.7,22.2,0.00,NE,49,10.1,10.1,28,0.00,,---,0.00,VWS V14.00,2013-05-19 20:27:00,
2013-05-19 14:28:00,54.7,23.1,0.00,ESE,113,10.1,10.1,29,0.00,,---,0.00,VWS V14.00,2013-05-19 20:28:00,
2013-05-19 14:29:00,54.7,23.1,0.00,SSE,156,4.5,14.1,29,0.00,,---,0.00,VWS V14.00,2013-05-19 20:29:00,
2013-05-19 14:32:00,54.9,23.2,0.00,SSW,206,2.2,5.8,29,0.00,,---,0.00,VWS V14.00,2013-05-19 20:32:00,
2013-05-19 14:33:00,54.7,23.1,0.00,SE,144,7.2,7.2,29,0.00,,---,0.00,VWS V14.00,2013-05-19 20:33:00,
2013-05-19 14:34:00,54.7,23.1,0.00,SE,144,3.6,8.3,29,0.00,,---,0.00,VWS V14.00,2013-05-19 20:34:00,
2013-05-19 14:37:00,54.7,23.1,0.00,ESE,120,4.0,4.9,29,0.00,,---,0.00,VWS V14.00,2013-05-19 20:37:00,
2013-05-19 14:38:00,54.9,24.0,0.00,SSE,150,5.8,5.8,30,0.00,,---,0.00,VWS V14.00,2013-05-19 20:38:00,
2013-05-19 14:39:00,55.0,24.2,0.00,SE,142,7.6,7.6,30,0.00,,---,0.00,VWS V14.00,2013-05-19 20:39:00,
2013-05-19 14:42:00,55.4,23.7,0.00,ESE,106,5.8,5.8,29,0.00,,---,0.00,VWS V14.00,2013-05-19 20:42:00,
2013-05-19 14:43:00,55.6,23.9,0.00,ESE,115,5.8,10.1,29,0.00,,---,0.00,VWS V14.00,2013-05-19 20:43:00,
2013-05-19 14:44:00,55.6,23.9,0.00,ENE,71,5.4,10.1,29,0.00,,---,0.00,VWS V14.00,2013-05-19 20:44:00,
2013-05-19 14:47:00,55.6,23.9,0.00,SSW,209,6.3,6.3,29,0.00,,---,0.00,VWS V14.00,2013-05-19 20:47:00,
2013-05-19 14:48:00,55.4,23.7,0.00,SSE,147,6.7,6.7,29,0.00,,---,0.00,VWS V14.00,2013-05-19 20:48:00,
2013-05-19 14:49:00,55.4,23.7,0.00,SE,139,3.6,6.7,29,0.00,,---,0.00,VWS V14.00,2013-05-19 20:49:00,
2013-05-19 14:53:00,55.0,24.2,0.00,ESE,102,10.5,10.5,30,0.00,,---,0.00,VWS V14.00,2013-05-19 20:53:00,
2013-05-19 14:54:00,55.0,24.2,0.00,ENE,57,5.4,6.3,30,0.00,,---,0.00,VWS V14.00,2013-05-19 20:54:00,
2013-05-19 14:58:00,54.7,23.9,0.00,ENE,78,5.8,5.8,30,0.00,,---,0.00,VWS V14.00,2013-05-19 20:58:00,
2013-05-19 14:59:00,54.5,23.7,0.00,East,98,3.6,8.1,30,0.00,,---,0.00,VWS V14.00,2013-05-19 20:59:00,
2013-05-19 15:03:00,54.5,23.7,0.00,SE,143,5.4,7.6,30,0.00,,---,0.00,VWS V14.00,2013-05-19 21:03:00,
2013-05-19 15:04:00,54.5,23.7,0.00,SSE,160,5.8,12.3,30,0.00,,---,0.00,VWS V14.00,2013-05-19 21:04:00,
2013-05-19 15:08:00,54.5,23.7,0.00,SE,135,11.0,11.0,30,0.00,,---,0.00,VWS V14.00,2013-05-19 21:08:00,
2013-05-19 15:09:00,54.7,23.9,0.00,ESE,114,9.2,9.2,30,0.00,,---,0.00,VWS V14.00,2013-05-19 21:09:00,
2013-05-19 15:13:00,54.5,23.7,0.00,ESE,121,6.3,6.3,30,0.00,,---,0.00,VWS V14.00,2013-05-19 21:13:00,
2013-05-19 15:14:00,54.5,23.7,0.00,SE,136,3.6,6.3,30,0.00,,---,0.00,VWS V14.00,2013-05-19 21:14:00,
2013-05-19 15:18:00,54.7,23.9,0.00,SW,225,2.7,9.6,30,0.00,,---,0.00,VWS V14.00,2013-05-19 21:18:00,
2013-05-19 15:19:00,54.7,23.9,0.00,East,92,5.4,7.2,30,0.00,,---,0.00,VWS V14.00,2013-05-19 21:19:00,
2013-05-19 15:24:00,54.9,24.0,0.00,SE,126,8.7,8.7,30,0.00,,---,0.00,VWS V14.00,2013-05-19 21:24:00,
2013-05-19 15:25:00,54.9,24.0,0.00,SE,124,5.8,8.3,30,0.00,,---,0.00,VWS V14.00,2013-05-19 21:25:00,
2013-05-19 15:29:00,55.4,24.5,0.00,ESE,103,7.2,7.2,30,0.00,,---,0.00,VWS V14.00,2013-05-19 21:29:00,
2013-05-19 15:30:00,55.6,24.7,0.00,SE,127,7.6,7.6,30,0.00,,---,0.00,VWS V14.00,2013-05-19 21:30:00,
2013-05-19 15:34:00,55.9,24.2,0.00,East,91,10.5,11.4,29,0.00,,---,0.00,VWS V14.00,2013-05-19 21:34:00,
2013-05-19 15:35:00,56.1,25.1,0.00,East,82,6.3,8.7,30,0.00,,---,0.00,VWS V14.00,2013-05-19 21:35:00,
2013-05-19 15:39:00,56.5,24.6,0.00,South,173,3.1,7.6,29,0.00,,---,0.00,VWS V14.00,2013-05-19 21:39:00,
2013-05-19 15:40:00,56.7,24.8,0.00,ENE,71,6.3,7.2,29,0.00,,---,0.00,VWS V14.00,2013-05-19 21:40:00,
2013-05-19 15:44:00,56.7,24.8,0.00,ENE,59,4.0,4.0,29,0.00,,---,0.00,VWS V14.00,2013-05-19 21:44:00,
2013-05-19 15:45:00,56.8,24.9,0.00,ESE,112,7.2,7.2,29,0.00,,---,0.00,VWS V14.00,2013-05-19 21:45:00,
2013-05-19 15:46:00,56.8,24.9,0.00,ESE,106,6.3,7.6,29,0.00,,---,0.00,VWS V14.00,2013-05-19 21:46:00,
2013-05-19 15:49:00,57.0,25.1,0.00,East,100,7.6,7.6,29,0.00,,---,0.00,VWS V14.00,2013-05-19 21:49:00,
2013-05-19 15:50:00,57.0,25.1,0.00,East,97,7.6,12.3,29,0.00,,---,0.00,VWS V14.00,2013-05-19 21:50:00,
2013-05-19 15:51:00,57.2,25.2,0.00,East,94,8.7,11.0,29,0.00,,---,0.00,VWS V14.00,2013-05-19 21:51:00,
2013-05-19 15:54:00,57.4,24.6,0.00,SE,142,8.1,8.1,28,0.00,,---,0.00,VWS V14.00,2013-05-19 21:54:00,
2013-05-19 15:55:00,57.4,24.6,0.00,ESE,106,8.1,10.1,28,0.00,,---,0.00,VWS V14.00,2013-05-19 21:55:00,
2013-05-19 15:56:00,57.4,24.6,0.00,SE,131,10.5,12.8,28,0.00,,---,0.00,VWS V14.00,2013-05-19 21:56:00,
2013-05-19 15:59:00,57.6,24.7,0.00,ESE,105,4.0,4.0,28,0.00,,---,0.00,VWS V14.00,2013-05-19 21:59:00,
2013-05-19 16:00:00,57.6,24.7,0.00,ESE,106,5.8,5.8,28,0.00,,---,0.00,VWS V14.00,2013-05-19 22:00:00,
2013-05-19 16:01:00,57.6,24.7,0.00,ESE,120,5.4,10.1,28,0.00,,---,0.00,VWS V14.00,2013-05-19 22:01:00,
2013-05-19 16:04:00,57.7,24.9,0.00,East,89,10.1,10.5,28,0.00,,---,0.00,VWS V14.00,2013-05-19 22:04:00,
2013-05-19 16:05:00,57.7,24.9,0.00,SE,133,4.0,10.5,28,0.00,,---,0.00,VWS V14.00,2013-05-19 22:05:00,
2013-05-19 16:06:00,57.7,24.9,0.00,ENE,66,5.8,8.3,28,0.00,,---,0.00,VWS V14.00,2013-05-19 22:06:00,
2013-05-19 16:09:00,57.9,25.0,0.00,ESE,114,8.1,8.1,28,0.00,,---,0.00,VWS V14.00,2013-05-19 22:09:00,
2013-05-19 16:10:00,57.9,25.0,0.00,ESE,105,8.3,8.3,28,0.00,,---,0.00,VWS V14.00,2013-05-19 22:10:00,
2013-05-19 16:11:00,57.9,25.0,0.00,ESE,122,6.3,8.3,28,0.00,,---,0.00,VWS V14.00,2013-05-19 22:11:00,
2013-05-19 16:15:00,57.6,23.9,0.00,WSW,251,8.1,8.7,27,0.00,,---,0.00,VWS V14.00,2013-05-19 22:15:00,
2013-05-19 16:16:00,57.6,23.9,0.00,East,101,10.1,10.1,27,0.00,,---,0.00,VWS V14.00,2013-05-19 22:16:00,
2013-05-19 16:20:00,57.4,23.7,0.00,ESE,113,11.4,11.4,27,0.00,,---,0.00,VWS V14.00,2013-05-19 22:20:00,
2013-05-19 16:21:00,57.4,23.7,0.00,ENE,61,12.8,12.8,27,0.00,,---,0.00,VWS V14.00,2013-05-19 22:21:00,
2013-05-19 16:25:00,57.2,23.5,0.00,ESE,110,11.9,11.9,27,0.00,,---,0.00,VWS V14.00,2013-05-19 22:25:00,
2013-05-19 16:26:00,57.2,23.5,0.00,ESE,121,8.3,8.3,27,0.00,,---,0.00,VWS V14.00,2013-05-19 22:26:00,
2013-05-19 16:30:00,57.0,24.3,0.00,ESE,122,6.3,10.1,28,0.00,,---,0.00,VWS V14.00,2013-05-19 22:30:00,
2013-05-19 16:31:00,57.0,24.3,0.00,ESE,112,14.5,14.5,28,0.00,,---,0.00,VWS V14.00,2013-05-19 22:31:00,
2013-05-19 16:35:00,56.8,24.1,0.00,East,91,5.4,5.4,28,0.00,,---,0.00,VWS V14.00,2013-05-19 22:35:00,
2013-05-19 16:36:00,56.7,24.0,0.00,ESE,120,6.3,11.0,28,0.00,,---,0.00,VWS V14.00,2013-05-19 22:36:00,
2013-05-19 16:37:00,56.7,24.0,0.00,East,101,10.5,11.0,28,0.00,,---,0.00,VWS V14.00,2013-05-19 22:37:00,
2013-05-19 16:40:00,56.7,24.0,0.00,SE,140,5.4,5.8,28,0.00,,---,0.00,VWS V14.00,2013-05-19 22:40:00,
2013-05-19 16:41:00,56.5,23.8,0.00,ESE,107,4.0,5.8,28,0.00,,---,0.00,VWS V14.00,2013-05-19 22:41:00,
2013-05-19 16:42:00,56.5,23.8,0.00,East,91,8.1,11.0,28,0.00,,---,0.00,VWS V14.00,2013-05-19 22:42:00,
2013-05-19 16:45:00,56.3,23.6,0.00,SE,126,5.4,13.2,28,0.00,,---,0.00,VWS V14.00,2013-05-19 22:45:00,
2013-05-19 16:46:00,56.3,23.6,0.00,ESE,115,5.4,13.2,28,0.00,,---,0.00,VWS V14.00,2013-05-19 22:46:00,
2013-05-19 16:47:00,56.3,23.6,0.00,ESE,105,6.3,8.3,28,0.00,,---,0.00,VWS V14.00,2013-05-19 22:47:00,
2013-05-19 16:50:00,56.1,23.5,0.00,ESE,113,5.4,8.3,28,0.00,,---,0.00,VWS V14.00,2013-05-19 22:50:00,
2013-05-19 16:51:00,56.1,23.5,0.00,East,97,8.1,8.3,28,0.00,,---,0.00,VWS V14.00,2013-05-19 22:51:00,
2013-05-19 16:52:00,56.1,23.5,0.00,SE,130,6.3,9.2,28,0.00,,---,0.00,VWS V14.00,2013-05-19 22:52:00,
2013-05-19 16:55:00,55.8,23.2,0.00,SE,135,3.6,7.6,28,0.00,,---,0.00,VWS V14.00,2013-05-19 22:55:00,
2013-05-19 16:56:00,55.6,23.0,0.00,East,91,3.1,7.6,28,0.00,,---,0.00,VWS V14.00,2013-05-19 22:56:00,
2013-05-19 16:57:00,55.6,23.0,0.00,SW,220,2.2,5.4,28,0.00,,---,0.00,VWS V14.00,2013-05-19 22:57:00,
2013-05-19 17:01:00,55.4,22.9,0.00,East,92,8.1,8.1,28,0.00,,---,0.00,VWS V14.00,2013-05-19 23:01:00,
2013-05-19 17:02:00,55.2,23.5,0.00,SE,135,6.3,7.6,29,0.00,,---,0.00,VWS V14.00,2013-05-19 23:02:00,
2013-05-19 17:06:00,55.0,23.4,0.00,ESE,121,6.3,8.7,29,0.00,,---,0.00,VWS V14.00,2013-05-19 23:06:00,
2013-05-19 17:07:00,55.0,23.4,0.00,East,101,8.7,10.1,29,0.00,,---,0.00,VWS V14.00,2013-05-19 23:07:00,
2013-05-19 17:11:00,55.0,23.4,0.00,SE,131,4.9,10.1,29,0.00,,---,0.00,VWS V14.00,2013-05-19 23:11:00,
2013-05-19 17:12:00,54.9,23.2,0.00,ESE,123,5.8,6.3,29,0.00,,---,0.00,VWS V14.00,2013-05-19 23:12:00,
2013-05-19 17:16:00,54.7,23.1,0.00,ESE,118,8.3,8.3,29,0.00,,---,0.00,VWS V14.00,2013-05-19 23:16:00,
2013-05-19 17:17:00,54.7,23.1,0.00,ENE,74,3.1,10.5,29,0.00,,---,0.00,VWS V14.00,2013-05-19 23:17:00,
2013-05-19 17:21:00,54.7,23.1,0.00,East,95,5.8,6.3,29,0.00,,---,0.00,VWS V14.00,2013-05-19 23:21:00,
2013-05-19 17:22:00,54.7,23.1,0.00,ESE,118,5.4,6.3,29,0.00,,---,0.00,VWS V14.00,2013-05-19 23:22:00,
2013-05-19 17:23:00,54.7,23.1,0.00,East,82,5.8,7.6,29,0.00,,---,0.00,VWS V14.00,2013-05-19 23:23:00,
2013-05-19 17:26:00,54.5,22.9,0.00,SE,131,6.7,8.3,29,0.00,,---,0.00,VWS V14.00,2013-05-19 23:26:00,
2013-05-19 17:27:00,54.5,22.9,0.00,SE,126,11.0,11.0,29,0.00,,---,0.00,VWS V14.00,2013-05-19 23:27:00,
2013-05-19 17:28:00,54.5,22.9,0.00,SE,145,7.6,11.0,29,0.00,,---,0.00,VWS V14.00,2013-05-19 23:28:00,
2013-05-19 17:31:00,54.3,22.8,0.00,ESE,104,6.7,6.7,29,0.00,,---,0.00,VWS V14.00,2013-05-19 23:31:00,
2013-05-19 17:32:00,54.3,22.8,0.00,SSE,154,9.6,11.0,29,0.00,,---,0.00,VWS V14.00,2013-05-19 23:32:00,
2013-05-19 17:33:00,54.3,22.8,0.00,East,94,8.1,8.7,29,0.00,,---,0.00,VWS V14.00,2013-05-19 23:33:00,
2013-05-19 17:36:00,54.0,22.5,0.00,SE,127,8.7,8.7,29,0.00,,---,0.00,VWS V14.00,2013-05-19 23:36:00,
2013-05-19 17:37:00,54.0,22.5,0.00,SE,140,4.0,8.7,29,0.00,,---,0.00,VWS V14.00,2013-05-19 23:37:00,
2013-05-19 17:38:00,54.0,22.5,0.00,ENE,64,10.5,15.4,29,0.00,,---,0.00,VWS V14.00,2013-05-19 23:38:00,
2013-05-19 17:41:00,53.8,22.3,0.00,ESE,103,10.1,10.1,29,0.00,,---,0.00,VWS V14.00,2013-05-19 23:41:00,
2013-05-19 17:42:00,53.8,22.3,0.00,ESE,118,6.3,6.3,29,0.00,,---,0.00,VWS V14.00,2013-05-19 23:42:00,
2013-05-19 17:43:00,53.6,22.1,0.00,East,101,6.3,7.6,29,0.00,,---,0.00,VWS V14.00,2013-05-19 23:43:00,
2013-05-19 17:46:00,53.6,22.1,0.00,NNE,33,8.7,8.7,29,0.00,,---,0.00,VWS V14.00,2013-05-19 23:46:00,
2013-05-19 17:47:00,53.6,22.1,0.00,ENE,61,3.6,4.9,29,0.00,,---,0.00,VWS V14.00,2013-05-19 23:47:00,
2013-05-19 17:48:00,53.6,22.1,0.00,East,89,4.0,4.9,29,0.00,,---,0.00,VWS V14.00,2013-05-19 23:48:00,
2013-05-19 17:51:00,53.6,22.1,0.00,ESE,108,7.6,7.6,29,0.00,,---,0.00,VWS V14.00,2013-05-19 23:51:00,
2013-05-19 17:52:00,53.4,22.0,0.00,SE,125,7.6,12.8,29,0.00,,---,0.00,VWS V14.00,2013-05-19 23:52:00,
2013-05-19 17:53:00,53.4,22.0,0.00,East,86,8.1,12.8,29,0.00,,---,0.00,VWS V14.00,2013-05-19 23:53:00,
2013-05-19 17:57:00,53.2,21.8,0.00,SE,130,4.9,6.3,29,0.00,,---,0.00,VWS V14.00,2013-05-19 23:57:00,
2013-05-19 17:58:00,53.2,21.8,0.00,ESE,109,5.4,5.4,29,0.00,,---,0.00,VWS V14.00,2013-05-19 23:58:00,
2013-05-19 18:02:00,53.1,21.7,0.00,NNE,27,3.1,8.3,29,0.00,,---,0.00,VWS V14.00,2013-05-20 00:02:00,
2013-05-19 18:03:00,53.1,21.7,0.00,East,93,6.3,6.3,29,0.00,,---,0.00,VWS V14.00,2013-05-20 00:03:00,
2013-05-19 18:04:00,53.1,21.7,0.00,ESE,104,4.9,8.7,29,0.00,,---,0.00,VWS V14.00,2013-05-20 00:04:00,
2013-05-19 18:07:00,52.9,21.5,0.00,ESE,123,4.9,4.9,29,0.00,,---,0.00,VWS V14.00,2013-05-20 00:07:00,
2013-05-19 18:08:00,52.9,21.5,0.00,East,89,5.4,5.4,29,0.00,,---,0.00,VWS V14.00,2013-05-20 00:08:00,
2013-05-19 18:09:00,52.7,21.4,0.00,ESE,108,5.4,8.1,29,0.00,,---,0.00,VWS V14.00,2013-05-20 00:09:00,
2013-05-19 18:12:00,52.5,21.2,0.00,SE,137,6.3,8.1,29,0.00,,---,0.00,VWS V14.00,2013-05-20 00:12:00,
2013-05-19 18:13:00,52.5,21.2,0.00,East,98,2.7,8.1,29,0.00,,---,0.00,VWS V14.00,2013-05-20 00:13:00,
2013-05-19 18:14:00,52.5,21.2,0.00,ESE,107,3.6,3.6,29,0.00,,---,0.00,VWS V14.00,2013-05-20 00:14:00,
2013-05-19 18:18:00,52.2,20.9,0.00,East,95,3.6,4.9,29,0.00,,---,0.00,VWS V14.00,2013-05-20 00:18:00,
2013-05-19 18:19:00,52.2,20.9,0.00,East,84,3.1,4.9,29,0.00,,---,0.00,VWS V14.00,2013-05-20 00:19:00,
2013-05-19 18:23:00,52.0,20.7,0.00,SE,136,5.8,5.8,29,0.00,,---,0.00,VWS V14.00,2013-05-20 00:23:00,
2013-05-19 18:24:00,52.0,20.7,0.00,ENE,68,3.6,5.8,29,0.00,,---,0.00,VWS V14.00,2013-05-20 00:24:00,
2013-05-19 18:28:00,51.6,21.2,0.00,NE,46,0.0,4.0,30,0.00,,---,0.00,VWS V14.00,2013-05-20 00:28:00,
2013-05-19 18:29:00,51.6,21.2,0.00,SE,126,3.6,3.6,30,0.00,,---,0.00,VWS V14.00,2013-05-20 00:29:00,
2013-05-19 18:30:00,51.6,21.2,0.00,East,92,5.8,5.8,30,0.00,,---,0.00,VWS V14.00,2013-05-20 00:30:00,
2013-05-19 18:33:00,51.4,21.1,0.00,East,98,6.3,7.6,30,0.00,,---,0.00,VWS V14.00,2013-05-20 00:33:00,
2013-05-19 18:34:00,51.3,20.9,0.00,ESE,110,4.9,5.4,30,0.00,,---,0.00,VWS V14.00,2013-05-20 00:34:00,
2013-05-19 18:35:00,51.3,20.9,0.00,SE,129,4.0,5.4,30,0.00,,---,0.00,VWS V14.00,2013-05-20 00:35:00,
2013-05-19 18:38:00,51.1,20.8,0.00,East,82,4.9,4.9,30,0.00,,---,0.00,VWS V14.00,2013-05-20 00:38:00,
2013-05-19 18:39:00,51.1,20.8,0.00,East,82,2.7,4.9,30,0.00,,---,0.00,VWS V14.00,2013-05-20 00:39:00,
2013-05-19 18:40:00,51.1,20.8,0.00,ESE,117,4.0,4.0,30,0.00,,---,0.00,VWS V14.00,2013-05-20 00:40:00,
2013-05-19 18:44:00,50.9,20.6,0.00,ESE,120,5.8,7.6,30,0.00,,---,0.00,VWS V14.00,2013-05-20 00:44:00,
2013-05-19 18:45:00,50.9,20.6,0.00,NE,47,4.0,7.6,30,0.00,,---,0.00,VWS V14.00,2013-05-20 00:45:00,
2013-05-19 18:49:00,50.5,20.3,0.00,WSW,249,4.9,6.7,30,0.00,,---,0.00,VWS V14.00,2013-05-20 00:49:00,
2013-05-19 18:50:00,50.4,19.3,0.00,West,277,2.7,4.0,29,0.00,,---,0.00,VWS V14.00,2013-05-20 00:50:00,
2013-05-19 18:54:00,50.2,20.0,0.00,East,87,3.1,4.0,30,0.00,,---,0.00,VWS V14.00,2013-05-20 00:54:00,
2013-05-19 18:55:00,50.2,20.0,0.00,ESE,114,4.0,4.0,30,0.00,,---,0.00,VWS V14.00,2013-05-20 00:55:00,
2013-05-19 18:59:00,50.0,19.8,0.00,SE,130,2.2,4.0,30,0.00,,---,0.00,VWS V14.00,2013-05-20 00:59:00,
2013-05-19 19:00:00,50.0,19.8,0.00,East,91,3.6,3.6,30,0.00,,---,0.00,VWS V14.00,2013-05-20 01:00:00,
2013-05-19 19:04:00,49.8,19.6,0.00,ESE,122,2.7,4.9,30,0.00,,---,0.00,VWS V14.00,2013-05-20 01:04:00,
2013-05-19 19:05:00,49.8,19.6,0.00,East,90,3.6,4.9,30,0.00,,---,0.00,VWS V14.00,2013-05-20 01:05:00,
2013-05-19 19:09:00,49.5,19.3,0.00,East,86,4.0,4.0,30,0.00,,---,0.00,VWS V14.00,2013-05-20 01:09:00,
2013-05-19 19:10:00,49.5,20.1,0.00,NE,42,7.6,7.6,31,0.00,,---,0.00,VWS V14.00,2013-05-20 01:10:00,
2013-05-19 19:14:00,49.1,19.0,0.00,SE,142,5.8,6.3,30,0.00,,---,0.00,VWS V14.00,2013-05-20 01:14:00,
2013-05-19 19:15:00,49.1,19.0,0.00,SE,138,6.3,6.3,30,0.00,,---,0.00,VWS V14.00,2013-05-20 01:15:00,
2013-05-19 19:19:00,48.7,18.7,0.00,ESE,116,5.4,5.4,30,0.00,,---,0.00,VWS V14.00,2013-05-20 01:19:00,
2013-05-19 19:20:00,48.7,18.7,0.00,ESE,106,6.3,6.3,30,0.00,,---,0.00,VWS V14.00,2013-05-20 01:20:00,
2013-05-19 19:24:00,48.6,18.5,0.00,SE,137,7.6,7.6,30,0.00,,---,0.00,VWS V14.00,2013-05-20 01:24:00,
2013-05-19 19:25:00,48.4,18.4,0.00,NE,49,4.9,4.9,30,0.00,,---,0.00,VWS V14.00,2013-05-20 01:25:00,
2013-05-19 19:26:00,48.4,18.4,0.00,ESE,122,3.6,4.9,30,0.00,,---,0.00,VWS V14.00,2013-05-20 01:26:00,
2013-05-19 19:30:00,48.2,18.2,0.00,SE,141,3.1,3.6,30,0.00,,---,0.00,VWS V14.00,2013-05-20 01:30:00,
2013-05-19 19:31:00,48.0,18.1,0.00,ESE,113,5.8,5.8,30,0.00,,---,0.00,VWS V14.00,2013-05-20 01:31:00,
2013-05-19 19:35:00,47.8,17.9,0.00,South,191,0.0,3.1,30,0.00,,---,0.00,VWS V14.00,2013-05-20 01:35:00,
2013-05-19 19:36:00,47.8,17.9,0.00,SSW,203,0.0,0.0,30,0.00,,---,0.00,VWS V14.00,2013-05-20 01:36:00,
2013-05-19 19:40:00,47.5,17.6,0.00,East,80,8.1,8.1,30,0.00,,---,0.00,VWS V14.00,2013-05-20 01:40:00,
2013-05-19 19:41:00,47.5,17.6,0.00,ESE,109,10.5,10.5,30,0.00,,---,0.00,VWS V14.00,2013-05-20 01:41:00,
2013-05-19 19:45:00,47.1,17.3,0.00,SE,146,5.4,6.3,30,0.00,,---,0.00,VWS V14.00,2013-05-20 01:45:00,
2013-05-19 19:46:00,47.1,17.3,0.00,ESE,119,6.3,6.3,30,0.00,,---,0.00,VWS V14.00,2013-05-20 01:46:00,
2013-05-19 19:50:00,46.8,17.0,0.00,ESE,123,5.4,5.4,30,0.00,,---,0.00,VWS V14.00,2013-05-20 01:50:00,
2013-05-19 19:51:00,46.6,16.8,0.00,SE,130,5.4,6.3,30,0.00,,---,0.00,VWS V14.00,2013-05-20 01:51:00,
2013-05-19 19:55:00,46.4,16.7,0.00,SSE,159,3.6,5.4,30,0.00,,---,0.00,VWS V14.00,2013-05-20 01:55:00,
2013-05-19 19:56:00,46.4,16.7,0.00,SSW,193,0.0,5.4,30,0.00,,---,0.00,VWS V14.00,2013-05-20 01:56:00,
2013-05-19 19:57:00,46.2,17.3,0.00,SSW,193,0.0,0.0,31,0.00,,---,0.00,VWS V14.00,2013-05-20 01:57:00,
2013-05-19 20:00:00,46.0,17.1,0.00,SSE,157,2.7,4.0,31,0.00,,---,0.00,VWS V14.00,2013-05-20 02:00:00,
2013-05-19 20:01:00,46.0,17.1,0.00,East,95,4.9,6.3,31,0.00,,---,0.00,VWS V14.00,2013-05-20 02:01:00,
2013-05-19 20:02:00,46.0,17.1,0.00,East,99,4.9,5.4,31,0.00,,---,0.00,VWS V14.00,2013-05-20 02:02:00,
2013-05-19 20:06:00,45.7,16.8,0.00,ESE,114,8.3,8.3,31,0.00,,---,0.00,VWS V14.00,2013-05-20 02:06:00,
2013-05-19 20:07:00,45.7,16.8,0.00,SE,138,4.9,6.3,31,0.00,,---,0.00,VWS V14.00,2013-05-20 02:07:00,
2013-05-19 20:11:00,45.3,16.5,0.00,SE,139,4.9,9.6,31,0.00,,---,0.00,VWS V14.00,2013-05-20 02:11:00,
2013-05-19 20:12:00,45.1,16.3,0.00,East,79,4.0,6.3,31,0.00,,---,0.00,VWS V14.00,2013-05-20 02:12:00,
2013-05-19 20:16:00,45.0,16.2,0.00,SE,129,3.6,5.8,31,0.00,,---,0.00,VWS V14.00,2013-05-20 02:16:00,
2013-05-19 20:17:00,45.0,16.2,0.00,East,92,3.1,4.9,31,0.00,,---,0.00,VWS V14.00,2013-05-20 02:17:00,
2013-05-19 20:21:00,44.6,15.9,0.00,East,94,10.5,10.5,31,0.00,,---,0.00,VWS V14.00,2013-05-20 02:21:00,
2013-05-19 20:22:00,44.6,15.9,0.00,SE,134,5.4,10.5,31,0.00,,---,0.00,VWS V14.00,2013-05-20 02:22:00,
2013-05-19 20:26:00,44.2,16.3,0.00,East,87,4.9,7.6,32,0.00,,---,0.00,VWS V14.00,2013-05-20 02:26:00,
2013-05-19 20:27:00,44.2,16.3,0.00,ENE,66,5.4,5.4,32,0.00,,---,0.00,VWS V14.00,2013-05-20 02:27:00,
2013-05-19 20:28:00,44.2,16.3,0.00,SE,137,5.8,6.3,32,0.00,,---,0.00,VWS V14.00,2013-05-20 02:28:00,
2013-05-19 20:31:00,44.1,16.1,0.00,SE,141,3.1,3.1,32,0.00,,---,0.00,VWS V14.00,2013-05-20 02:31:00,
2013-05-19 20:32:00,44.1,16.1,0.00,East,93,5.8,5.8,32,0.00,,---,0.00,VWS V14.00,2013-05-20 02:32:00,
2013-05-19 20:33:00,43.9,15.9,0.00,SE,133,3.1,3.1,32,0.00,,---,0.00,VWS V14.00,2013-05-20 02:33:00,
2013-05-19 20:36:00,43.7,15.8,0.00,SE,134,2.7,2.7,32,0.00,,---,0.00,VWS V14.00,2013-05-20 02:36:00,
2013-05-19 20:37:00,43.7,15.8,0.00,ESE,122,2.7,2.7,32,0.00,,---,0.00,VWS V14.00,2013-05-20 02:37:00,
2013-05-19 20:38:00,43.7,15.8,0.00,East,87,4.0,4.0,32,0.00,,---,0.00,VWS V14.00,2013-05-20 02:38:00,
2013-05-19 20:41:00,43.7,15.8,0.00,SE,128,2.2,4.0,32,0.00,,---,0.00,VWS V14.00,2013-05-20 02:41:00,
2013-05-19 20:42:00,43.5,15.6,0.00,ESE,105,3.6,4.0,32,0.00,,---,0.00,VWS V14.00,2013-05-20 02:42:00,
2013-05-19 20:43:00,43.5,15.6,0.00,ESE,110,6.3,6.3,32,0.00,,---,0.00,VWS V14.00,2013-05-20 02:43:00,
2013-05-19 20:46:00,43.3,15.5,0.00,ENE,62,5.8,5.8,32,0.00,,---,0.00,VWS V14.00,2013-05-20 02:46:00,
2013-05-19 20:47:00,43.3,16.2,0.00,East,98,4.5,4.5,33,0.00,,---,0.00,VWS V14.00,2013-05-20 02:47:00,
2013-05-19 20:48:00,43.3,16.2,0.00,ESE,123,3.1,3.1,33,0.00,,---,0.00,VWS V14.00,2013-05-20 02:48:00,
2013-05-19 20:51:00,43.2,16.0,0.00,ESE,121,4.5,4.5,33,0.00,,---,0.00,VWS V14.00,2013-05-20 02:51:00,
2013-05-19 20:52:00,43.2,16.0,0.00,SE,129,3.6,4.9,33,0.00,,---,0.00,VWS V14.00,2013-05-20 02:52:00,
2013-05-19 20:53:00,43.0,15.9,0.00,ESE,116,3.1,10.5,33,0.00,,---,0.00,VWS V14.00,2013-05-20 02:53:00,
2013-05-19 20:56:00,43.0,15.9,0.00,SE,127,4.0,4.0,33,0.00,,---,0.00,VWS V14.00,2013-05-20 02:56:00,
2013-05-19 20:57:00,43.0,15.9,0.00,East,100,3.1,4.0,33,0.00,,---,0.00,VWS V14.00,2013-05-20 02:57:00,
2013-05-19 20:58:00,43.0,15.9,0.00,ESE,123,3.1,6.3,33,0.00,,---,0.00,VWS V14.00,2013-05-20 02:58:00,
2013-05-19 21:02:00,42.8,15.7,0.00,SSE,155,2.7,3.6,33,0.00,,---,0.00,VWS V14.00,2013-05-20 03:02:00,
2013-05-19 21:03:00,42.6,16.2,0.00,SSE,157,0.0,2.7,34,0.00,,---,0.00,VWS V14.00,2013-05-20 03:03:00,
2013-05-19 21:06:00,42.4,16.1,0.00,SE,139,0.0,0.0,34,0.00,,---,0.00,VWS V14.00,2013-05-20 03:06:00,
2013-05-19 21:07:00,42.4,16.1,0.00,SSE,155,0.0,0.0,34,0.00,,---,0.00,VWS V14.00,2013-05-20 03:07:00,
2013-05-19 21:08:00,42.4,16.1,0.00,SSE,155,0.0,0.0,34,0.00,,---,0.00,VWS V14.00,2013-05-20 03:08:00,
2013-05-19 21:12:00,42.3,15.9,0.00,ESE,104,2.2,4.9,34,0.00,,---,0.00,VWS V14.00,2013-05-20 03:12:00,
2013-05-19 21:13:00,42.3,15.9,0.00,SE,128,2.2,3.6,34,0.00,,---,0.00,VWS V14.00,2013-05-20 03:13:00,
2013-05-19 21:14:00,42.3,15.9,0.00,South,178,2.7,6.3,34,0.00,,---,0.00,VWS V14.00,2013-05-20 03:14:00,
2013-05-19 21:17:00,42.1,15.8,0.00,ESE,123,4.9,4.9,34,0.00,,---,0.00,VWS V14.00,2013-05-20 03:17:00,
2013-05-19 21:18:00,42.1,15.8,0.00,ESE,120,3.1,4.0,34,0.00,,---,0.00,VWS V14.00,2013-05-20 03:18:00,
2013-05-19 21:19:00,42.1,15.8,0.00,ESE,115,2.2,3.6,34,0.00,,---,0.00,VWS V14.00,2013-05-20 03:19:00,
2013-05-19 21:22:00,42.1,15.8,0.00,ENE,67,0.0,0.0,34,0.00,,---,0.00,VWS V14.00,2013-05-20 03:22:00,
2013-05-19 21:23:00,42.1,15.8,0.00,ENE,67,0.0,0.0,34,0.00,,---,0.00,VWS V14.00,2013-05-20 03:23:00,
2013-05-19 21:24:00,41.9,15.6,0.00,East,86,5.8,5.8,34,0.00,,---,0.00,VWS V14.00,2013-05-20 03:24:00,
2013-05-19 21:27:00,41.7,15.4,0.00,SE,143,2.7,2.7,34,0.00,,---,0.00,VWS V14.00,2013-05-20 03:27:00,
2013-05-19 21:28:00,41.7,15.4,0.00,SSE,149,4.0,5.4,34,0.00,,---,0.00,VWS V14.00,2013-05-20 03:28:00,
2013-05-19 21:29:00,41.7,16.1,0.00,ESE,107,5.4,5.4,35,0.00,,---,0.00,VWS V14.00,2013-05-20 03:29:00,
2013-05-19 21:32:00,41.7,16.1,0.00,ESE,119,6.3,11.0,35,0.00,,---,0.00,VWS V14.00,2013-05-20 03:32:00,
2013-05-19 21:33:00,41.5,15.9,0.00,ESE,113,8.1,11.0,35,0.00,,---,0.00,VWS V14.00,2013-05-20 03:33:00,
2013-05-19 21:34:00,41.5,15.9,0.00,SSW,192,0.0,2.2,35,0.00,,---,0.00,VWS V14.00,2013-05-20 03:34:00,
2013-05-19 21:37:00,41.5,15.9,0.00,East,81,4.0,4.0,35,0.00,,---,0.00,VWS V14.00,2013-05-20 03:37:00,
2013-05-19 21:38:00,41.4,15.8,0.00,East,88,6.3,6.3,35,0.00,,---,0.00,VWS V14.00,2013-05-20 03:38:00,
2013-05-19 21:39:00,41.4,15.8,0.00,ESE,112,6.3,6.3,35,0.00,,---,0.00,VWS V14.00,2013-05-20 03:39:00,
2013-05-19 21:42:00,41.4,15.8,0.00,SSE,164,0.0,2.2,35,0.00,,---,0.00,VWS V14.00,2013-05-20 03:42:00,
2013-05-19 21:43:00,41.2,15.6,0.00,South,175,0.0,2.2,35,0.00,,---,0.00,VWS V14.00,2013-05-20 03:43:00,
2013-05-19 21:44:00,41.2,15.6,0.00,SSE,153,0.0,0.0,35,0.00,,---,0.00,VWS V14.00,2013-05-20 03:44:00,
2013-05-19 21:48:00,41.2,16.3,0.00,SSE,158,4.5,4.5,36,0.00,,---,0.00,VWS V14.00,2013-05-20 03:48:00,
2013-05-19 21:50:00,41.2,16.3,0.00,SSE,147,2.7,2.7,36,0.00,,---,0.00,VWS V14.00,2013-05-20 03:50:00,
2013-05-19 21:53:00,41.0,16.1,0.00,SSE,148,0.0,0.0,36,0.00,,---,0.00,VWS V14.00,2013-05-20 03:53:00,
2013-05-19 21:54:00,41.0,16.1,0.00,SSE,147,0.0,0.0,36,0.00,,---,0.00,VWS V14.00,2013-05-20 03:54:00,
2013-05-19 21:55:00,41.0,16.1,0.00,East,101,4.9,4.9,36,0.00,,---,0.00,VWS V14.00,2013-05-20 03:55:00,
2013-05-19 21:58:00,41.0,16.1,0.00,South,171,2.7,6.3,36,0.00,,---,0.00,VWS V14.00,2013-05-20 03:58:00,
2013-05-19 21:59:00,41.0,16.1,0.00,SSE,148,3.6,6.3,36,0.00,,---,0.00,VWS V14.00,2013-05-20 03:59:00,
2013-05-19 22:00:00,40.8,15.9,0.00,SSE,147,2.7,2.7,36,0.00,,---,0.00,VWS V14.00,2013-05-20 04:00:00,
2013-05-19 22:01:00,40.8,16.6,0.00,South,180,2.2,3.1,37,0.00,,---,0.00,VWS V14.00,2013-05-20 04:01:00,
2013-05-19 22:06:00,40.6,16.4,0.00,East,97,5.8,7.6,37,0.00,,---,0.00,VWS V14.00,2013-05-20 04:06:00,
2013-05-19 22:11:00,40.6,16.4,0.00,ESE,107,0.0,3.6,37,0.00,,---,0.00,VWS V14.00,2013-05-20 04:11:00,
2013-05-19 22:16:00,40.5,16.3,0.00,SSE,151,3.1,6.3,37,0.00,,---,0.00,VWS V14.00,2013-05-20 04:16:00,
2013-05-19 22:17:00,40.5,16.3,0.00,East,92,8.3,8.3,37,0.00,,---,0.00,VWS V14.00,2013-05-20 04:17:00,
2013-05-19 22:21:00,40.5,16.3,0.00,SE,140,0.0,2.2,37,0.00,,---,0.00,VWS V14.00,2013-05-20 04:21:00,
2013-05-19 22:22:00,40.5,16.3,0.00,South,191,0.0,2.2,37,0.00,,---,0.00,VWS V14.00,2013-05-20 04:22:00,
2013-05-19 22:26:00,40.5,16.9,0.00,SSW,192,0.0,0.0,38,0.00,,---,0.00,VWS V14.00,2013-05-20 04:26:00,
2013-05-19 22:27:00,40.3,16.7,0.00,South,171,3.6,3.6,38,0.00,,---,0.00,VWS V14.00,2013-05-20 04:27:00,
2013-05-19 22:31:00,40.3,16.7,0.00,ENE,68,0.0,0.0,38,0.00,,---,0.00,VWS V14.00,2013-05-20 04:31:00,
2013-05-19 22:32:00,40.3,16.7,0.00,ENE,68,0.0,0.0,38,0.00,,---,0.00,VWS V14.00,2013-05-20 04:32:00,
2013-05-19 22:36:00,40.3,16.7,0.00,ENE,68,0.0,0.0,38,0.00,,---,0.00,VWS V14.00,2013-05-20 04:36:00,
2013-05-19 22:37:00,40.3,16.7,0.00,ENE,68,0.0,0.0,38,0.00,,---,0.00,VWS V14.00,2013-05-20 04:37:00,
2013-05-19 22:41:00,40.1,16.5,0.00,SW,226,2.2,2.7,38,0.00,,---,0.00,VWS V14.00,2013-05-20 04:41:00,
2013-05-19 22:42:00,40.1,16.5,0.00,SW,226,0.0,2.7,38,0.00,,---,0.00,VWS V14.00,2013-05-20 04:42:00,
2013-05-19 22:46:00,39.9,16.4,0.00,SE,127,0.0,5.8,38,0.00,,---,0.00,VWS V14.00,2013-05-20 04:46:00,
2013-05-19 22:47:00,39.9,16.4,0.00,South,181,0.0,5.8,38,0.00,,---,0.00,VWS V14.00,2013-05-20 04:47:00,
2013-05-19 22:48:00,39.9,16.4,0.00,ENE,63,3.6,3.6,38,0.00,,---,0.00,VWS V14.00,2013-05-20 04:48:00,
2013-05-19 22:51:00,39.9,17.0,0.00,SE,140,0.0,0.0,39,0.00,,---,0.00,VWS V14.00,2013-05-20 04:51:00,
2013-05-19 22:52:00,39.9,17.0,0.00,SE,143,0.0,0.0,39,0.00,,---,0.00,VWS V14.00,2013-05-20 04:52:00,
2013-05-19 22:54:00,39.7,16.8,0.00,ESE,116,0.0,0.0,39,0.00,,---,0.00,VWS V14.00,2013-05-20 04:54:00,
2013-05-19 22:57:00,39.7,16.8,0.00,ESE,113,0.0,0.0,39,0.00,,---,0.00,VWS V14.00,2013-05-20 04:57:00,
2013-05-19 22:59:00,39.7,16.8,0.00,South,175,0.0,0.0,39,0.00,,---,0.00,VWS V14.00,2013-05-20 04:59:00,
2013-05-19 23:02:00,39.7,16.8,0.00,East,88,2.7,3.6,39,0.00,,---,0.00,VWS V14.00,2013-05-20 05:02:00,
2013-05-19 23:04:00,39.6,16.7,0.00,SSW,195,4.9,8.1,39,0.00,,---,0.00,VWS V14.00,2013-05-20 05:04:00,
2013-05-19 23:07:00,39.6,16.7,0.00,East,99,5.8,5.8,39,0.00,,---,0.00,VWS V14.00,2013-05-20 05:07:00,
2013-05-19 23:09:00,39.6,16.7,0.00,SSW,194,2.7,4.0,39,0.00,,---,0.00,VWS V14.00,2013-05-20 05:09:00,
2013-05-19 23:12:00,39.6,16.7,0.00,East,91,4.0,4.0,39,0.00,,---,0.00,VWS V14.00,2013-05-20 05:12:00,
2013-05-19 23:14:00,39.6,16.7,0.00,SSW,201,0.0,3.1,39,0.00,,---,0.00,VWS V14.00,2013-05-20 05:14:00,
2013-05-19 23:17:00,39.4,16.5,0.00,SE,145,0.0,3.6,39,0.00,,---,0.00,VWS V14.00,2013-05-20 05:17:00,
2013-05-19 23:18:00,39.4,16.5,0.00,SE,127,5.8,5.8,39,0.00,,---,0.00,VWS V14.00,2013-05-20 05:18:00,
2013-05-19 23:20:00,39.4,16.5,0.00,ESE,121,3.6,3.6,39,0.00,,---,0.00,VWS V14.00,2013-05-20 05:20:00,
2013-05-19 23:22:00,39.4,16.5,0.00,SSE,148,2.2,3.1,39,0.00,,---,0.00,VWS V14.00,2013-05-20 05:22:00,
2013-05-19 23:23:00,39.4,16.5,0.00,SSE,166,0.0,2.2,39,0.00,,---,0.00,VWS V14.00,2013-05-20 05:23:00,
2013-05-19 23:25:00,39.4,16.5,0.00,SE,125,2.7,2.7,39,0.00,,---,0.00,VWS V14.00,2013-05-20 05:25:00,
2013-05-19 23:27:00,39.4,16.5,0.00,SE,141,0.0,2.2,39,0.00,,---,0.00,VWS V14.00,2013-05-20 05:27:00,
2013-05-19 23:28:00,39.4,16.5,0.00,SE,141,0.0,0.0,39,0.00,,---,0.00,VWS V14.00,2013-05-20 05:28:00,
2013-05-19 23:30:00,39.2,16.3,0.00,SSW,206,0.0,0.0,39,0.00,,---,0.00,VWS V14.00,2013-05-20 05:30:00,
2013-05-19 23:32:00,39.2,16.3,0.00,SSW,206,0.0,0.0,39,0.00,,---,0.00,VWS V14.00,2013-05-20 05:32:00,
2013-05-19 23:33:00,39.2,16.3,0.00,South,171,2.2,2.2,39,0.00,,---,0.00,VWS V14.00,2013-05-20 05:33:00,
2013-05-19 23:36:00,39.2,16.3,0.00,ENE,77,6.3,6.3,39,0.00,,---,0.00,VWS V14.00,2013-05-20 05:36:00,
2013-05-19 23:37:00,39.2,16.3,0.00,ESE,106,7.6,8.1,39,0.00,,---,0.00,VWS V14.00,2013-05-20 05:37:00,
2013-05-19 23:38:00,39.2,16.3,0.00,SSW,211,2.2,7.6,39,0.00,,---,0.00,VWS V14.00,2013-05-20 05:38:00,
2013-05-19 23:41:00,39.2,16.3,0.00,ENE,75,3.6,6.3,39,0.00,,---,0.00,VWS V14.00,2013-05-20 05:41:00,
2013-05-19 23:42:00,39.0,16.8,0.00,SSE,154,0.0,0.0,40,0.00,,---,0.00,VWS V14.00,2013-05-20 05:42:00,
2013-05-19 23:43:00,39.0,16.8,0.00,West,270,3.1,6.3,40,0.00,,---,0.00,VWS V14.00,2013-05-20 05:43:00,
2013-05-19 23:46:00,39.0,16.8,0.00,WNW,287,2.7,4.0,40,0.00,,---,0.00,VWS V14.00,2013-05-20 05:46:00,
2013-05-19 23:47:00,39.0,16.8,0.00,WNW,297,3.6,3.6,40,0.00,,---,0.00,VWS V14.00,2013-05-20 05:47:00,
2013-05-19 23:48:00,38.8,16.6,0.00,WNW,300,3.1,3.1,40,0.00,,---,0.00,VWS V14.00,2013-05-20 05:48:00,
2013-05-19 23:49:00,38.8,16.6,0.00,WNW,302,3.6,3.6,40,0.00,,---,0.00,VWS V14.00,2013-05-20 05:49:00,
2013-05-19 23:52:00,38.8,16.6,0.00,WNW,302,0.0,0.0,40,0.00,,---,0.00,VWS V14.00,2013-05-20 05:52:00,
2013-05-19 23:53:00,38.8,16.6,0.00,WNW,300,0.0,0.0,40,0.00,,---,0.00,VWS V14.00,2013-05-20 05:53:00,
2013-05-19 23:54:00,38.8,16.6,0.00,WNW,302,0.0,0.0,40,0.00,,---,0.00,VWS V14.00,2013-05-20 05:54:00,
2013-05-19 23:57:00,38.8,16.6,0.00,SE,132,3.1,4.0,40,0.00,,---,0.00,VWS V14.00,2013-05-20 05:57:00,
2013-05-19 23:58:00,38.8,16.6,0.00,ESE,109,2.7,4.0,40,0.00,,---,0.00,VWS V14.00,2013-05-20 05:58:00,
2013-05-19 23:59:00,38.8,16.6,0.00,ESE,111,4.0,5.4,40,0.00,,---,0.00,VWS V14.00,2013-05-20 05:59:00,